Observation data for Smyer on 11/07/2019      Previous  Date       Current Mesonet Observations  Soil Data  Daily Summary Page  Observations in Plain Language
KSM2 070600Z 34007KT 13/13 A3019 RMK A01 T01330131  RH  098%=      5-min Rain = 0
KSM2 070601Z 34006KT 13/13 A3019 RMK A01 T01330131  RH  098%=      5-min Rain = 0
KSM2 070602Z 34006KT 13/13 A3019 RMK A01 T01330131  RH  098%=      5-min Rain = 0
KSM2 070603Z 34006KT 13/13 A3019 RMK A01 T01330131  RH  098%=      5-min Rain = 0
KSM2 070604Z 34006KT 13/13 A3019 RMK A01 T01330131  RH  098%=      5-min Rain = 0
KSM2 070605Z 34006KT 13/13 A3018 RMK A01 T01330131  RH  098%=      5-min Rain = 0
KSM2 070606Z 34007KT 13/13 A3018 RMK A01 T01330131  RH  098%=      5-min Rain = 0
KSM2 070607Z 35006KT 13/13 A3018 RMK A01 T01330131  RH  098%=      5-min Rain = 0
KSM2 070608Z 35005KT 13/13 A3018 RMK A01 T01330131  RH  098%=      5-min Rain = 0
KSM2 070609Z 35005KT 13/13 A3017 RMK A01 T01330131  RH  098%=      5-min Rain = 0
KSM2 070610Z 35006KT 13/13 A3017 RMK A01 T01330131  RH  098%=      5-min Rain = 0
KSM2 070611Z 00005KT 13/13 A3017 RMK A01 T01330131  RH  098%=      5-min Rain = 0
KSM2 070612Z 00005KT 13/13 A3017 RMK A01 T01330131  RH  098%=      5-min Rain = 0
KSM2 070613Z 00005KT 13/13 A3017 RMK A01 T01330131  RH  098%=      5-min Rain = 0
KSM2 070614Z 00005KT 13/13 A3017 RMK A01 T01330131  RH  098%=      5-min Rain = 0
KSM2 070615Z 36005KT 13/13 A3017 RMK A01 T01330131  RH  098%=      5-min Rain = 0
KSM2 070616Z 36004KT 13/13 A3017 RMK A01 T01330131  RH  098%=      5-min Rain = 0
KSM2 070617Z 36005KT 13/13 A3017 RMK A01 T01330131  RH  098%=      5-min Rain = 0
KSM2 070618Z 36005KT 13/13 A3017 RMK A01 T01340131  RH  098%=      5-min Rain = 0
KSM2 070619Z 00004KT 13/13 A3017 RMK A01 T01330131  RH  098%=      5-min Rain = 0
KSM2 070620Z 00004KT 13/13 A3017 RMK A01 T01330131  RH  098%=      5-min Rain = 0
KSM2 070621Z 01003KT 13/13 A3017 RMK A01 T01330131  RH  098%=      5-min Rain = 0
KSM2 070622Z 01002KT 13/13 A3017 RMK A01 T01330131  RH  098%=      5-min Rain = 0
KSM2 070623Z 01002KT 13/13 A3017 RMK A01 T01330131  RH  098%=      5-min Rain = 0
KSM2 070624Z 35001KT 13/13 A3017 RMK A01 T01330131  RH  098%=      5-min Rain = 0
KSM2 070625Z 33002KT 13/13 A3017 RMK A01 T01330131  RH  098%=      5-min Rain = 0
KSM2 070626Z 32002KT 13/13 A3017 RMK A01 T01330131  RH  098%=      5-min Rain = 0
KSM2 070627Z 33002KT 13/13 A3017 RMK A01 T01330131  RH  098%=      5-min Rain = 0
KSM2 070628Z 33002KT 13/13 A3017 RMK A01 T01330131  RH  098%=      5-min Rain = 0
KSM2 070629Z 34001KT 13/13 A3017 RMK A01 T01330131  RH  098%=      5-min Rain = 0
KSM2 070630Z 33001KT 13/13 A3017 RMK A01 T01330131  RH  098%=      5-min Rain = 0
KSM2 070631Z 33000KT 13/13 A3017 RMK A01 T01330131  RH  098%=      5-min Rain = 0
KSM2 070632Z 00000KT 13/13 A3017 RMK A01 T01330131  RH  098%=      5-min Rain = 0
KSM2 070633Z 00000KT 13/13 A3017 RMK A01 T01330131  RH  098%=      5-min Rain = 0
KSM2 070634Z 00000KT 13/13 A3017 RMK A01 T01330131  RH  098%=      5-min Rain = 0
KSM2 070635Z 26000KT 13/13 A3017 RMK A01 T01330131  RH  098%=      5-min Rain = 0
KSM2 070636Z 26001KT 13/13 A3017 RMK A01 T01330131  RH  098%=      5-min Rain = 0
KSM2 070637Z 24001KT 13/13 A3017 RMK A01 T01330131  RH  098%=      5-min Rain = 0
KSM2 070638Z 24001KT 13/13 A3017 RMK A01 T01340131  RH  098%=      5-min Rain = 0
KSM2 070639Z 23001KT 13/13 A3017 RMK A01 T01330131  RH  098%=      5-min Rain = 0
KSM2 070640Z 23001KT 13/13 A3017 RMK A01 T01340131  RH  098%=      5-min Rain = 0
KSM2 070641Z 22001KT 13/13 A3017 RMK A01 T01330131  RH  098%=      5-min Rain = 0
KSM2 070642Z 22001KT 13/13 A3017 RMK A01 T01330131  RH  098%=      5-min Rain = 0
KSM2 070643Z 20001KT 13/13 A3017 RMK A01 T01340131  RH  098%=      5-min Rain = 0
KSM2 070644Z 20001KT 13/13 A3017 RMK A01 T01330131  RH  098%=      5-min Rain = 0
KSM2 070645Z 20002KT 13/13 A3017 RMK A01 T01330131  RH  098%=      5-min Rain = 0
KSM2 070646Z 20002KT 13/13 A3017 RMK A01 T01330131  RH  098%=      5-min Rain = 0
KSM2 070647Z 19002KT 13/13 A3017 RMK A01 T01330131  RH  098%=      5-min Rain = 0
KSM2 070648Z 19002KT 13/13 A3016 RMK A01 T01330131  RH  098%=      5-min Rain = 0
KSM2 070649Z 19002KT 13/13 A3016 RMK A01 T01330131  RH  098%=      5-min Rain = 0
KSM2 070650Z 18002KT 13/13 A3016 RMK A01 T01330131  RH  098%=      5-min Rain = 0
KSM2 070651Z 17002KT 13/13 A3016 RMK A01 T01340131  RH  098%=      5-min Rain = 0
KSM2 070652Z 17002KT 13/13 A3016 RMK A01 T01340131  RH  098%=      5-min Rain = 0
KSM2 070653Z 17002KT 13/13 A3016 RMK A01 T01330131  RH  098%=      5-min Rain = 0
KSM2 070654Z 16002KT 13/13 A3016 RMK A01 T01330131  RH  098%=      5-min Rain = 0
KSM2 070655Z 17002KT 13/13 A3016 RMK A01 T01330131  RH  098%=      5-min Rain = 0
KSM2 070656Z 16002KT 13/13 A3016 RMK A01 T01330131  RH  098%=      5-min Rain = 0
KSM2 070657Z 15002KT 13/13 A3016 RMK A01 T01330131  RH  098%=      5-min Rain = 0
KSM2 070658Z 16002KT 13/13 A3016 RMK A01 T01330131  RH  098%=      5-min Rain = 0
KSM2 070659Z 15002KT 13/13 A3016 RMK A01 T01340131  RH  098%=      5-min Rain = 0.01
KSM2 070700Z 14002KT 13/13 A3016 RMK A01 T01340131  RH  098%=      5-min Rain = 0
KSM2 070701Z 14001KT 13/13 A3016 RMK A01 T01340131  RH  098%=      5-min Rain = 0
KSM2 070702Z 13001KT 13/13 A3016 RMK A01 T01340131  RH  098%=      5-min Rain = 0
KSM2 070703Z 12002KT 13/13 A3016 RMK A01 T01340132  RH  098%=      5-min Rain = 0
KSM2 070704Z 12002KT 13/13 A3015 RMK A01 T01340132  RH  098%=      5-min Rain = 0
KSM2 070705Z 12001KT 13/13 A3015 RMK A01 T01340132  RH  098%=      5-min Rain = 0
KSM2 070706Z 12002KT 13/13 A3015 RMK A01 T01340132  RH  098%=      5-min Rain = 0
KSM2 070707Z 13001KT 13/13 A3016 RMK A01 T01340132  RH  098%=      5-min Rain = 0
KSM2 070708Z 15001KT 13/13 A3016 RMK A01 T01340131  RH  098%=      5-min Rain = 0
KSM2 070709Z 15001KT 13/13 A3016 RMK A01 T01340131  RH  098%=      5-min Rain = 0
KSM2 070710Z 15001KT 13/13 A3016 RMK A01 T01340132  RH  098%=      5-min Rain = 0
KSM2 070711Z 17001KT 13/13 A3016 RMK A01 T01340132  RH  098%=      5-min Rain = 0
KSM2 070712Z 00000KT 13/13 A3016 RMK A01 T01340132  RH  098%=      5-min Rain = 0
KSM2 070713Z 25000KT 13/13 A3016 RMK A01 T01340131  RH  098%=      5-min Rain = 0
KSM2 070714Z 25001KT 13/13 A3017 RMK A01 T01340132  RH  098%=      5-min Rain = 0
KSM2 070715Z 25001KT 13/13 A3017 RMK A01 T01340132  RH  098%=      5-min Rain = 0
KSM2 070716Z 27001KT 13/13 A3017 RMK A01 T01340131  RH  098%=      5-min Rain = 0
KSM2 070717Z 27001KT 13/13 A3017 RMK A01 T01340131  RH  098%=      5-min Rain = 0
KSM2 070718Z 27002KT 13/13 A3017 RMK A01 T01340131  RH  098%=      5-min Rain = 0
KSM2 070719Z 27002KT 13/13 A3017 RMK A01 T01340132  RH  098%=      5-min Rain = 0
KSM2 070720Z 27002KT 13/13 A3018 RMK A01 T01340132  RH  098%=      5-min Rain = 0
KSM2 070721Z 27003KT 13/13 A3018 RMK A01 T01340131  RH  098%=      5-min Rain = 0
KSM2 070722Z 26003KT 13/13 A3018 RMK A01 T01340131  RH  098%=      5-min Rain = 0
KSM2 070723Z 26003KT 13/13 A3018 RMK A01 T01340131  RH  098%=      5-min Rain = 0
KSM2 070724Z 26003KT 13/13 A3018 RMK A01 T01340131  RH  098%=      5-min Rain = 0
KSM2 070725Z 26004KT 13/13 A3018 RMK A01 T01340132  RH  098%=      5-min Rain = 0
KSM2 070726Z 27004KT 13/13 A3019 RMK A01 T01340132  RH  098%=      5-min Rain = 0
KSM2 070727Z 27005KT 13/13 A3019 RMK A01 T01340132  RH  099%=      5-min Rain = 0
KSM2 070728Z 27004KT 13/13 A3019 RMK A01 T01340132  RH  098%=      5-min Rain = 0
KSM2 070729Z 28004KT 13/13 A3019 RMK A01 T01340131  RH  098%=      5-min Rain = 0
KSM2 070730Z 28004KT 13/13 A3019 RMK A01 T01340132  RH  098%=      5-min Rain = 0
KSM2 070731Z 29004KT 13/13 A3019 RMK A01 T01340132  RH  098%=      5-min Rain = 0
KSM2 070732Z 29004KT 13/13 A3019 RMK A01 T01340132  RH  098%=      5-min Rain = 0
KSM2 070733Z 29004KT 13/13 A3019 RMK A01 T01340132  RH  098%=      5-min Rain = 0
KSM2 070734Z 29003KT 13/13 A3019 RMK A01 T01340132  RH  098%=      5-min Rain = 0
KSM2 070735Z 30003KT 13/13 A3019 RMK A01 T01340132  RH  098%=      5-min Rain = 0
KSM2 070736Z 31003KT 13/13 A3019 RMK A01 T01340132  RH  098%=      5-min Rain = 0
KSM2 070737Z 30003KT 13/13 A3019 RMK A01 T01340132  RH  098%=      5-min Rain = 0
KSM2 070738Z 30003KT 13/13 A3019 RMK A01 T01340132  RH  098%=      5-min Rain = 0
KSM2 070739Z 30003KT 13/13 A3019 RMK A01 T01340131  RH  098%=      5-min Rain = 0
KSM2 070740Z 30002KT 13/13 A3019 RMK A01 T01340132  RH  098%=      5-min Rain = 0
KSM2 070741Z 31002KT 13/13 A3019 RMK A01 T01340131  RH  098%=      5-min Rain = 0
KSM2 070742Z 31002KT 13/13 A3019 RMK A01 T01340132  RH  098%=      5-min Rain = 0
KSM2 070743Z 32002KT 13/13 A3019 RMK A01 T01340132  RH  098%=      5-min Rain = 0
KSM2 070744Z 32003KT 13/13 A3019 RMK A01 T01340131  RH  098%=      5-min Rain = 0
KSM2 070745Z 32004KT 13/13 A3019 RMK A01 T01330131  RH  098%=      5-min Rain = 0
KSM2 070746Z 33005KT 13/13 A3019 RMK A01 T01330131  RH  098%=      5-min Rain = 0
KSM2 070747Z 34005KT 13/13 A3019 RMK A01 T01330131  RH  098%=      5-min Rain = 0
KSM2 070748Z 34006KT 13/13 A3018 RMK A01 T01330131  RH  098%=      5-min Rain = 0
KSM2 070749Z 35007KT 13/13 A3018 RMK A01 T01330131  RH  098%=      5-min Rain = 0.01
KSM2 070750Z 34009KT 13/13 A3019 RMK A01 T01330131  RH  098%=      5-min Rain = 0
KSM2 070751Z 34014G24KT 13/13 A3019 RMK A01 T01340131  RH  098%=      5-min Rain = 0
KSM2 070752Z 35025KT 12/11 A3019 RMK A01 T01200114  RH  096%=      5-min Rain = 0
KSM2 070753Z 36024KT 10/09 A302 RMK A01 T01000089  RH  093%=      5-min Rain = 0
KSM2 070754Z 36024G29KT 09/08 A302 RMK A01 T00890079  RH  094%=      5-min Rain = 0.01
KSM2 070755Z 36024KT 08/08 A3021 RMK A01 T00830075  RH  095%=      5-min Rain = 0
KSM2 070756Z 36025KT 08/07 A3021 RMK A01 T00760069  RH  095%=      5-min Rain = 0
KSM2 070757Z 35024G29KT 07/07 A3022 RMK A01 T00730066  RH  095%=      5-min Rain = 0
KSM2 070758Z 35022KT 07/07 A3022 RMK A01 T00710065  RH  096%=      5-min Rain = 0
KSM2 070759Z 35027G32KT 07/06 A3022 RMK A01 T00680062  RH  096%=      5-min Rain = 0
KSM2 070800Z 36025KT 07/06 A3022 RMK A01 T00650059  RH  096%=      5-min Rain = 0.01
KSM2 070801Z 01029KT 06/06 A3022 RMK A01 T00630056  RH  096%=      5-min Rain = 0
KSM2 070802Z 36027KT 06/05 A3023 RMK A01 T00600052  RH  095%=      5-min Rain = 0
KSM2 070803Z 35026KT 06/05 A3023 RMK A01 T00580050  RH  095%=      5-min Rain = 0
KSM2 070804Z 35027KT 06/05 A3023 RMK A01 T00570049  RH  095%=      5-min Rain = 0
KSM2 070805Z 36027G33KT 06/05 A3023 RMK A01 T00560048  RH  095%=      5-min Rain = 0
KSM2 070806Z 36026G31KT 05/05 A3023 RMK A01 T00540046  RH  095%=      5-min Rain = 0
KSM2 070807Z 36025G30KT 05/05 A3023 RMK A01 T00540046  RH  094%=      5-min Rain = 0.01
KSM2 070808Z 36025KT 05/05 A3023 RMK A01 T00530045  RH  094%=      5-min Rain = 0
KSM2 070809Z 00022KT 05/05 A3024 RMK A01 T00530045  RH  094%=      5-min Rain = 0
KSM2 070810Z 00022KT 05/04 A3024 RMK A01 T00520044  RH  095%=      5-min Rain = 0
KSM2 070811Z 00022G27KT 05/05 A3024 RMK A01 T00520045  RH  095%=      5-min Rain = 0
KSM2 070812Z 36022G27KT 05/05 A3024 RMK A01 T00530045  RH  095%=      5-min Rain = 0
KSM2 070813Z 35029G34KT 05/04 A3025 RMK A01 T00520044  RH  094%=      5-min Rain = 0
KSM2 070814Z 35028KT 05/04 A3025 RMK A01 T00490038  RH  093%=      5-min Rain = 0
KSM2 070815Z 36024KT 05/04 A3025 RMK A01 T00480036  RH  092%=      5-min Rain = 0
KSM2 070816Z 35025G31KT 05/04 A3025 RMK A01 T00470035  RH  092%=      5-min Rain = 0
KSM2 070817Z 35024KT 05/04 A3026 RMK A01 T00470036  RH  093%=      5-min Rain = 0
KSM2 070818Z 35026KT 05/04 A3026 RMK A01 T00470035  RH  092%=      5-min Rain = 0
KSM2 070819Z 35024KT 05/04 A3026 RMK A01 T00470035  RH  092%=      5-min Rain = 0
KSM2 070820Z 34025G30KT 05/03 A3026 RMK A01 T00460033  RH  092%=      5-min Rain = 0
KSM2 070821Z 35028KT 04/03 A3026 RMK A01 T00440031  RH  091%=      5-min Rain = 0
KSM2 070822Z 35024KT 04/03 A3026 RMK A01 T00430030  RH  091%=      5-min Rain = 0
KSM2 070823Z 35023KT 04/03 A3026 RMK A01 T00430031  RH  092%=      5-min Rain = 0
KSM2 070824Z 35022KT 04/03 A3026 RMK A01 T00430031  RH  092%=      5-min Rain = 0
KSM2 070825Z 00019KT 04/03 A3026 RMK A01 T00430032  RH  092%=      5-min Rain = 0
KSM2 070826Z 35024G29KT 04/03 A3025 RMK A01 T00430032  RH  093%=      5-min Rain = 0
KSM2 070827Z 36024KT 04/03 A3025 RMK A01 T00420031  RH  092%=      5-min Rain = 0
KSM2 070828Z 36025G30KT 04/03 A3025 RMK A01 T00420030  RH  092%=      5-min Rain = 0
KSM2 070829Z 00022KT 04/03 A3025 RMK A01 T00410029  RH  092%=      5-min Rain = 0
KSM2 070830Z 36022KT 04/03 A3025 RMK A01 T00400029  RH  092%=      5-min Rain = 0
KSM2 070831Z 36020KT 04/03 A3025 RMK A01 T00400029  RH  092%=      5-min Rain = 0
KSM2 070832Z 36024G30KT 04/03 A3025 RMK A01 T00390028  RH  092%=      5-min Rain = 0
KSM2 070833Z 36023KT 04/03 A3025 RMK A01 T00390027  RH  092%=      5-min Rain = 0
KSM2 070834Z 00026KT 04/03 A3025 RMK A01 T00380026  RH  092%=      5-min Rain = 0
KSM2 070835Z 00023KT 04/03 A3025 RMK A01 T00380026  RH  092%=      5-min Rain = 0
KSM2 070836Z 36023KT 04/03 A3025 RMK A01 T00380026  RH  092%=      5-min Rain = 0
KSM2 070837Z 00023G28KT 04/03 A3025 RMK A01 T00380026  RH  092%=      5-min Rain = 0
KSM2 070838Z 00020KT 04/03 A3025 RMK A01 T00380026  RH  092%=      5-min Rain = 0
KSM2 070839Z 01023KT 04/03 A3025 RMK A01 T00370026  RH  092%=      5-min Rain = 0
KSM2 070840Z 00019G24KT 04/02 A3026 RMK A01 T00360024  RH  092%=      5-min Rain = 0
KSM2 070841Z 00020G25KT 04/03 A3026 RMK A01 T00360025  RH  092%=      5-min Rain = 0
KSM2 070842Z 01020KT 04/03 A3026 RMK A01 T00360025  RH  092%=      5-min Rain = 0
KSM2 070843Z 00024G30KT 04/02 A3026 RMK A01 T00350024  RH  092%=      5-min Rain = 0
KSM2 070844Z 00025KT 03/02 A3026 RMK A01 T00340022  RH  092%=      5-min Rain = 0
KSM2 070845Z 00025KT 03/02 A3026 RMK A01 T00330021  RH  092%=      5-min Rain = 0
KSM2 070846Z 00021KT 03/02 A3027 RMK A01 T00330021  RH  092%=      5-min Rain = 0
KSM2 070847Z 00023KT 03/02 A3027 RMK A01 T00330022  RH  092%=      5-min Rain = 0
KSM2 070848Z 01020G25KT 03/02 A3027 RMK A01 T00330022  RH  092%=      5-min Rain = 0
KSM2 070849Z 00019KT 03/02 A3027 RMK A01 T00330022  RH  093%=      5-min Rain = 0
KSM2 070850Z 36019KT 03/02 A3027 RMK A01 T00330023  RH  093%=      5-min Rain = 0
KSM2 070851Z 00018G23KT 03/02 A3027 RMK A01 T00330023  RH  093%=      5-min Rain = 0
KSM2 070852Z 36016G21KT 03/02 A3027 RMK A01 T00330023  RH  093%=      5-min Rain = 0
KSM2 070853Z 00015KT 03/02 A3027 RMK A01 T00330023  RH  094%=      5-min Rain = 0
KSM2 070854Z 01018G23KT 03/02 A3027 RMK A01 T00320023  RH  094%=      5-min Rain = 0
KSM2 070855Z 01019G24KT 03/02 A3027 RMK A01 T00320023  RH  094%=      5-min Rain = 0
KSM2 070856Z 00020KT 03/02 A3027 RMK A01 T00310022  RH  094%=      5-min Rain = 0
KSM2 070857Z 00020KT 03/02 A3027 RMK A01 T00310022  RH  094%=      5-min Rain = 0
KSM2 070858Z 00020G25KT 03/02 A3027 RMK A01 T00310021  RH  094%=      5-min Rain = 0
KSM2 070859Z 00020KT 03/02 A3027 RMK A01 T00300020  RH  093%=      5-min Rain = 0
KSM2 070900Z 00019G24KT 03/02 A3026 RMK A01 T00290020  RH  094%=      5-min Rain = 0
KSM2 070901Z 36021KT 03/02 A3026 RMK A01 T00300021  RH  094%=      5-min Rain = 0
KSM2 070902Z 01019KT 03/02 A3026 RMK A01 T00290021  RH  094%=      5-min Rain = 0.01
KSM2 070903Z 01020G29KT 03/02 A3026 RMK A01 T00290021  RH  094%=      5-min Rain = 0
KSM2 070904Z 01022G27KT 03/02 A3026 RMK A01 T00280019  RH  094%=      5-min Rain = 0
KSM2 070905Z 01023G28KT 03/02 A3026 RMK A01 T00260017  RH  094%=      5-min Rain = 0
KSM2 070906Z 00024KT 03/02 A3026 RMK A01 T00250016  RH  094%=      5-min Rain = 0
KSM2 070907Z 01021KT 03/02 A3026 RMK A01 T00250016  RH  094%=      5-min Rain = 0
KSM2 070908Z 01024KT 03/02 A3026 RMK A01 T00250017  RH  094%=      5-min Rain = 0
KSM2 070909Z 01026KT 02/02 A3026 RMK A01 T00240016  RH  094%=      5-min Rain = 0
KSM2 070910Z 00022G28KT 02/02 A3026 RMK A01 T00230015  RH  094%=      5-min Rain = 0
KSM2 070911Z 01023KT 02/02 A3026 RMK A01 T00240016  RH  095%=      5-min Rain = 0
KSM2 070912Z 00020G25KT 02/02 A3026 RMK A01 T00230016  RH  095%=      5-min Rain = 0
KSM2 070913Z 01023G30KT 02/02 A3026 RMK A01 T00240016  RH  095%=      5-min Rain = 0
KSM2 070914Z 00021G26KT 02/02 A3026 RMK A01 T00240016  RH  095%=      5-min Rain = 0
KSM2 070915Z 01021KT 02/02 A3026 RMK A01 T00240016  RH  095%=      5-min Rain = 0
KSM2 070916Z 01022KT 02/02 A3026 RMK A01 T00230016  RH  095%=      5-min Rain = 0
KSM2 070917Z 00020KT 02/02 A3026 RMK A01 T00230016  RH  095%=      5-min Rain = 0
KSM2 070918Z 01022KT 02/02 A3026 RMK A01 T00230017  RH  095%=      5-min Rain = 0
KSM2 070919Z 36020G25KT 02/02 A3026 RMK A01 T00230017  RH  096%=      5-min Rain = 0
KSM2 070920Z 36023KT 02/02 A3026 RMK A01 T00240017  RH  096%=      5-min Rain = 0
KSM2 070921Z 36022G27KT 02/02 A3026 RMK A01 T00240017  RH  095%=      5-min Rain = 0
KSM2 070922Z 35024G30KT 02/02 A3026 RMK A01 T00240017  RH  095%=      5-min Rain = 0
KSM2 070923Z 36022G27KT 02/02 A3026 RMK A01 T00230016  RH  095%=      5-min Rain = 0
KSM2 070924Z 36023G28KT 02/02 A3026 RMK A01 T00230016  RH  095%=      5-min Rain = 0
KSM2 070925Z 00023KT 02/02 A3026 RMK A01 T00230016  RH  095%=      5-min Rain = 0
KSM2 070926Z 00024G29KT 02/02 A3026 RMK A01 T00220015  RH  095%=      5-min Rain = 0
KSM2 070927Z 00024KT 02/02 A3026 RMK A01 T00220015  RH  095%=      5-min Rain = 0
KSM2 070928Z 00022G27KT 02/01 A3026 RMK A01 T00220014  RH  095%=      5-min Rain = 0
KSM2 070929Z 01019KT 02/01 A3026 RMK A01 T00220014  RH  095%=      5-min Rain = 0
KSM2 070930Z 01021KT 02/01 A3026 RMK A01 T00220014  RH  095%=      5-min Rain = 0
KSM2 070931Z 01019G25KT 02/01 A3026 RMK A01 T00210014  RH  095%=      5-min Rain = 0
KSM2 070932Z 00021KT 02/01 A3026 RMK A01 T00210014  RH  095%=      5-min Rain = 0
KSM2 070933Z 01021G26KT 02/01 A3026 RMK A01 T00210014  RH  095%=      5-min Rain = 0
KSM2 070934Z 00021G28KT 02/01 A3026 RMK A01 T00210013  RH  095%=      5-min Rain = 0
KSM2 070935Z 01024G29KT 02/01 A3026 RMK A01 T00200012  RH  095%=      5-min Rain = 0
KSM2 070936Z 01019KT 02/01 A3026 RMK A01 T00200012  RH  095%=      5-min Rain = 0
KSM2 070937Z 00020KT 02/01 A3026 RMK A01 T00200012  RH  095%=      5-min Rain = 0
KSM2 070938Z 00022KT 02/01 A3026 RMK A01 T00200013  RH  095%=      5-min Rain = 0
KSM2 070939Z 01020KT 02/01 A3026 RMK A01 T00190012  RH  095%=      5-min Rain = 0
KSM2 070940Z 00026G32KT 02/01 A3025 RMK A01 T00190012  RH  095%=      5-min Rain = 0
KSM2 070941Z 00021KT 02/01 A3026 RMK A01 T00190011  RH  095%=      5-min Rain = 0
KSM2 070942Z 01021KT 02/01 A3026 RMK A01 T00190011  RH  095%=      5-min Rain = 0
KSM2 070943Z 01021G27KT 02/01 A3026 RMK A01 T00180011  RH  095%=      5-min Rain = 0
KSM2 070944Z 01020KT 02/01 A3025 RMK A01 T00180011  RH  095%=      5-min Rain = 0
KSM2 070945Z 01021G26KT 02/01 A3025 RMK A01 T00180011  RH  095%=      5-min Rain = 0
KSM2 070946Z 01022G28KT 02/01 A3025 RMK A01 T00180011  RH  095%=      5-min Rain = 0
KSM2 070947Z 01020KT 02/01 A3025 RMK A01 T00180011  RH  095%=      5-min Rain = 0
KSM2 070948Z 01019G25KT 02/01 A3026 RMK A01 T00180011  RH  095%=      5-min Rain = 0
KSM2 070949Z 01017KT 02/01 A3026 RMK A01 T00180011  RH  095%=      5-min Rain = 0
KSM2 070950Z 01020G25KT 02/01 A3026 RMK A01 T00180011  RH  095%=      5-min Rain = 0
KSM2 070951Z 01021KT 02/01 A3026 RMK A01 T00180011  RH  095%=      5-min Rain = 0
KSM2 070952Z 01022KT 02/01 A3026 RMK A01 T00170010  RH  095%=      5-min Rain = 0
KSM2 070953Z 01020KT 02/01 A3026 RMK A01 T00170010  RH  095%=      5-min Rain = 0
KSM2 070954Z 01019G25KT 02/01 A3026 RMK A01 T00170010  RH  095%=      5-min Rain = 0
KSM2 070955Z 01016KT 02/01 A3026 RMK A01 T00170010  RH  095%=      5-min Rain = 0
KSM2 070956Z 01020G25KT 02/01 A3026 RMK A01 T00170010  RH  095%=      5-min Rain = 0
KSM2 070957Z 01018KT 02/01 A3026 RMK A01 T00170009  RH  095%=      5-min Rain = 0
KSM2 070958Z 00021G26KT 02/01 A3026 RMK A01 T00170009  RH  095%=      5-min Rain = 0
KSM2 070959Z 00022KT 02/01 A3027 RMK A01 T00180010  RH  095%=      5-min Rain = 0
KSM2 071000Z 01021G26KT 02/01 A3027 RMK A01 T00170009  RH  094%=      5-min Rain = 0
KSM2 071001Z 00022G28KT 02/01 A3026 RMK A01 T00180009  RH  094%=      5-min Rain = 0
KSM2 071002Z 01021G26KT 02/01 A3026 RMK A01 T00170009  RH  094%=      5-min Rain = 0
KSM2 071003Z 01022KT 02/01 A3026 RMK A01 T00170008  RH  094%=      5-min Rain = 0
KSM2 071004Z 01017G22KT 02/01 A3026 RMK A01 T00160007  RH  094%=      5-min Rain = 0
KSM2 071005Z 01016KT 02/01 A3026 RMK A01 T00160008  RH  094%=      5-min Rain = 0
KSM2 071006Z 00017KT 02/01 A3026 RMK A01 T00160008  RH  094%=      5-min Rain = 0
KSM2 071007Z 00017KT 02/01 A3026 RMK A01 T00170009  RH  094%=      5-min Rain = 0
KSM2 071008Z 00017KT 02/01 A3026 RMK A01 T00170009  RH  095%=      5-min Rain = 0
KSM2 071009Z 00018KT 02/01 A3026 RMK A01 T00170009  RH  095%=      5-min Rain = 0
KSM2 071010Z 36018G23KT 02/01 A3026 RMK A01 T00170009  RH  094%=      5-min Rain = 0
KSM2 071011Z 00022KT 02/01 A3026 RMK A01 T00160008  RH  094%=      5-min Rain = 0
KSM2 071012Z 00023KT 02/01 A3026 RMK A01 T00150006  RH  094%=      5-min Rain = 0
KSM2 071013Z 00020KT 02/01 A3026 RMK A01 T00150005  RH  093%=      5-min Rain = 0
KSM2 071014Z 00019G24KT 02/01 A3026 RMK A01 T00150006  RH  093%=      5-min Rain = 0
KSM2 071015Z 36019KT 02/01 A3026 RMK A01 T00150006  RH  094%=      5-min Rain = 0
KSM2 071016Z 00020KT 02/01 A3026 RMK A01 T00150006  RH  094%=      5-min Rain = 0
KSM2 071017Z 01018KT 02/01 A3026 RMK A01 T00150006  RH  094%=      5-min Rain = 0
KSM2 071018Z 01018KT 02/01 A3026 RMK A01 T00150006  RH  094%=      5-min Rain = 0
KSM2 071019Z 01017KT 01/01 A3026 RMK A01 T00140005  RH  094%=      5-min Rain = 0
KSM2 071020Z 01017G22KT 01/01 A3026 RMK A01 T00140006  RH  094%=      5-min Rain = 0
KSM2 071021Z 01017KT 02/01 A3026 RMK A01 T00150006  RH  094%=      5-min Rain = 0
KSM2 071022Z 00020KT 01/01 A3025 RMK A01 T00140006  RH  094%=      5-min Rain = 0
KSM2 071023Z 01019KT 01/01 A3025 RMK A01 T00140006  RH  094%=      5-min Rain = 0
KSM2 071024Z 01021G27KT 01/01 A3025 RMK A01 T00140006  RH  094%=      5-min Rain = 0
KSM2 071025Z 01019KT 02/01 A3025 RMK A01 T00150006  RH  094%=      5-min Rain = 0
KSM2 071026Z 01019KT 02/01 A3025 RMK A01 T00150007  RH  094%=      5-min Rain = 0
KSM2 071027Z 01018KT 02/01 A3025 RMK A01 T00150006  RH  094%=      5-min Rain = 0
KSM2 071028Z 01020G29KT 02/01 A3025 RMK A01 T00150006  RH  094%=      5-min Rain = 0
KSM2 071029Z 01022KT 01/01 A3026 RMK A01 T00140005  RH  094%=      5-min Rain = 0
KSM2 071030Z 00021G27KT 01/01 A3026 RMK A01 T00140005  RH  094%=      5-min Rain = 0
KSM2 071031Z 00023G28KT 01/00 A3026 RMK A01 T00140004  RH  093%=      5-min Rain = 0
KSM2 071032Z 01019G24KT 01/00 A3026 RMK A01 T00140004  RH  093%=      5-min Rain = 0
KSM2 071033Z 01023G28KT 01/00 A3026 RMK A01 T00140004  RH  094%=      5-min Rain = 0
KSM2 071034Z 00027KT 01/00 A3026 RMK A01 T00130004  RH  093%=      5-min Rain = 0
KSM2 071035Z 01026KT 01/00 A3026 RMK A01 T00130003  RH  093%=      5-min Rain = 0
KSM2 071036Z 01022G28KT 01/00 A3026 RMK A01 T00130003  RH  093%=      5-min Rain = 0
KSM2 071037Z 00023KT 01/00 A3026 RMK A01 T00130003  RH  093%=      5-min Rain = 0
KSM2 071038Z 00018KT 01/00 A3026 RMK A01 T00130004  RH  093%=      5-min Rain = 0
KSM2 071039Z 00024G33KT 01/00 A3026 RMK A01 T00130004  RH  094%=      5-min Rain = 0
KSM2 071040Z 01026G31KT 01/00 A3025 RMK A01 T00130003  RH  093%=      5-min Rain = 0
KSM2 071041Z 00024G29KT 01/00 A3025 RMK A01 T00130003  RH  093%=      5-min Rain = 0
KSM2 071042Z 00023KT 01/00 A3025 RMK A01 T00120002  RH  093%=      5-min Rain = 0
KSM2 071043Z 00025KT 01/00 A3026 RMK A01 T00120002  RH  093%=      5-min Rain = 0
KSM2 071044Z 00022KT 01/00 A3026 RMK A01 T00120002  RH  093%=      5-min Rain = 0
KSM2 071045Z 00021KT 01/00 A3026 RMK A01 T00120003  RH  093%=      5-min Rain = 0
KSM2 071046Z 00020G25KT 01/00 A3027 RMK A01 T00120003  RH  094%=      5-min Rain = 0
KSM2 071047Z 00017KT 01/00 A3027 RMK A01 T00120004  RH  094%=      5-min Rain = 0
KSM2 071048Z 36020G25KT 01/00 A3027 RMK A01 T00120004  RH  094%=      5-min Rain = 0
KSM2 071049Z 35021G27KT 01/00 A3027 RMK A01 T00120004  RH  094%=      5-min Rain = 0
KSM2 071050Z 35022KT 01/00 A3028 RMK A01 T00120004  RH  094%=      5-min Rain = 0
KSM2 071051Z 00022KT 01/00 A3028 RMK A01 T00120004  RH  094%=      5-min Rain = 0
KSM2 071052Z 35021G26KT 01/00 A3028 RMK A01 T00120003  RH  094%=      5-min Rain = 0
KSM2 071053Z 36019G24KT 01/00 A3028 RMK A01 T00120003  RH  094%=      5-min Rain = 0
KSM2 071054Z 36018KT 01/00 A3028 RMK A01 T00120003  RH  094%=      5-min Rain = 0
KSM2 071055Z 36020KT 01/00 A3029 RMK A01 T00120004  RH  095%=      5-min Rain = 0
KSM2 071056Z 36023G28KT 01/00 A3028 RMK A01 T00120004  RH  094%=      5-min Rain = 0
KSM2 071057Z 00023KT 01/00 A3029 RMK A01 T00110003  RH  094%=      5-min Rain = 0
KSM2 071058Z 36019G25KT 01/00 A3029 RMK A01 T00110002  RH  094%=      5-min Rain = 0
KSM2 071059Z 36022KT 01/00 A3029 RMK A01 T00110003  RH  094%=      5-min Rain = 0
KSM2 071100Z 00019KT 01/00 A3029 RMK A01 T00110002  RH  094%=      5-min Rain = 0
KSM2 071101Z 01019G24KT 01/00 A303 RMK A01 T00110003  RH  094%=      5-min Rain = 0
KSM2 071102Z 00018KT 01/00 A303 RMK A01 T00110002  RH  094%=      5-min Rain = 0.01
KSM2 071103Z 00021G26KT 01/00 A303 RMK A01 T00110002  RH  094%=      5-min Rain = 0
KSM2 071104Z 01024G29KT 01/00 A303 RMK A01 T00110001  RH  094%=      5-min Rain = 0
KSM2 071105Z 01021G27KT 01/00 A303 RMK A01 T00100000  RH  093%=      5-min Rain = 0
KSM2 071106Z 01019KT 01/00 A303 RMK A01 T00100001  RH  093%=      5-min Rain = 0
KSM2 071107Z 00022KT 01/00 A303 RMK A01 T00110001  RH  093%=      5-min Rain = 0
KSM2 071108Z 00020G25KT 01/00 A303 RMK A01 T00100000  RH  093%=      5-min Rain = 0
KSM2 071109Z 00023KT 01/00 A303 RMK A01 T00100000  RH  093%=      5-min Rain = 0
KSM2 071110Z 00024KT 01/M00 A303 RMK A01 T00091001  RH  093%=      5-min Rain = 0
KSM2 071111Z 00020G25KT 01/M00 A303 RMK A01 T00091001  RH  093%=      5-min Rain = 0
KSM2 071112Z 00021KT 01/00 A303 RMK A01 T000900-0  RH  093%=      5-min Rain = 0
KSM2 071113Z 00021KT 01/00 A303 RMK A01 T00100000  RH  094%=      5-min Rain = 0
KSM2 071114Z 36020KT 01/00 A303 RMK A01 T00090000  RH  094%=      5-min Rain = 0
KSM2 071115Z 35022KT 01/00 A3031 RMK A01 T00100001  RH  094%=      5-min Rain = 0
KSM2 071116Z 36020KT 01/00 A3031 RMK A01 T00090001  RH  094%=      5-min Rain = 0
KSM2 071117Z 36016G21KT 01/00 A3031 RMK A01 T00100001  RH  094%=      5-min Rain = 0
KSM2 071118Z 36017KT 01/00 A3031 RMK A01 T00100002  RH  095%=      5-min Rain = 0
KSM2 071119Z 36023KT 01/00 A3031 RMK A01 T00090001  RH  095%=      5-min Rain = 0
KSM2 071120Z 00022G27KT 01/00 A3031 RMK A01 T00080000  RH  094%=      5-min Rain = 0
KSM2 071121Z 01022KT 01/00 A3031 RMK A01 T000800-0  RH  094%=      5-min Rain = 0
KSM2 071122Z 00024KT 01/M00 A3031 RMK A01 T00081001  RH  094%=      5-min Rain = 0
KSM2 071123Z 00024KT 01/M00 A3032 RMK A01 T00081001  RH  094%=      5-min Rain = 0
KSM2 071124Z 00019KT 01/M00 A3032 RMK A01 T00071002  RH  094%=      5-min Rain = 0
KSM2 071125Z 00019KT 01/00 A3032 RMK A01 T000800-0  RH  094%=      5-min Rain = 0
KSM2 071126Z 36023G29KT 01/00 A3032 RMK A01 T000800-0  RH  094%=      5-min Rain = 0
KSM2 071127Z 00026KT 01/M00 A3032 RMK A01 T00081001  RH  094%=      5-min Rain = 0
KSM2 071128Z 00022G28KT 01/M00 A3032 RMK A01 T00081002  RH  093%=      5-min Rain = 0
KSM2 071129Z 00025KT 01/M00 A3032 RMK A01 T00081002  RH  093%=      5-min Rain = 0
KSM2 071130Z 01023KT 01/M00 A3032 RMK A01 T00071003  RH  093%=      5-min Rain = 0
KSM2 071131Z 00023G29KT 01/M00 A3032 RMK A01 T00071003  RH  093%=      5-min Rain = 0
KSM2 071132Z 00026G32KT 01/M00 A3032 RMK A01 T00071004  RH  093%=      5-min Rain = 0
KSM2 071133Z 01022KT 01/M00 A3032 RMK A01 T00061004  RH  093%=      5-min Rain = 0
KSM2 071134Z 01019KT 01/M00 A3032 RMK A01 T00061004  RH  093%=      5-min Rain = 0
KSM2 071135Z 01020G26KT 01/M00 A3032 RMK A01 T00061003  RH  093%=      5-min Rain = 0
KSM2 071136Z 01020KT 01/M00 A3032 RMK A01 T00061003  RH  093%=      5-min Rain = 0
KSM2 071137Z 00020G25KT 01/M00 A3032 RMK A01 T00061003  RH  094%=      5-min Rain = 0
KSM2 071138Z 00024G30KT 01/M00 A3032 RMK A01 T00061003  RH  094%=      5-min Rain = 0
KSM2 071139Z 00021KT 01/M00 A3032 RMK A01 T00061003  RH  094%=      5-min Rain = 0
KSM2 071140Z 01020G25KT 01/M00 A3033 RMK A01 T00061003  RH  093%=      5-min Rain = 0
KSM2 071141Z 00022G27KT 01/M00 A3033 RMK A01 T00061004  RH  093%=      5-min Rain = 0
KSM2 071142Z 01019KT 01/M00 A3033 RMK A01 T00061004  RH  093%=      5-min Rain = 0
KSM2 071143Z 01022KT 01/M00 A3033 RMK A01 T00061003  RH  094%=      5-min Rain = 0
KSM2 071144Z 01021KT 01/M00 A3033 RMK A01 T00061003  RH  093%=      5-min Rain = 0
KSM2 071145Z 01017KT 01/M00 A3033 RMK A01 T00061003  RH  093%=      5-min Rain = 0
KSM2 071146Z 00016KT 01/M00 A3033 RMK A01 T00061003  RH  094%=      5-min Rain = 0
KSM2 071147Z 01015KT 01/M00 A3033 RMK A01 T00061003  RH  094%=      5-min Rain = 0
KSM2 071148Z 01020G25KT 01/M00 A3032 RMK A01 T00061002  RH  094%=      5-min Rain = 0
KSM2 071149Z 01017KT 01/M00 A3033 RMK A01 T00051003  RH  094%=      5-min Rain = 0
KSM2 071150Z 00016G21KT 01/M00 A3033 RMK A01 T00051003  RH  094%=      5-min Rain = 0
KSM2 071151Z 01018KT 01/M00 A3033 RMK A01 T00051003  RH  094%=      5-min Rain = 0
KSM2 071152Z 36020KT 01/M00 A3033 RMK A01 T00051003  RH  094%=      5-min Rain = 0
KSM2 071153Z 36018G23KT 01/M00 A3033 RMK A01 T00051003  RH  094%=      5-min Rain = 0
KSM2 071154Z 01021KT 01/M00 A3033 RMK A01 T00051003  RH  094%=      5-min Rain = 0
KSM2 071155Z 00021KT 00/M00 A3033 RMK A01 T00041004  RH  094%=      5-min Rain = 0
KSM2 071156Z 00024KT 00/M01 A3032 RMK A01 T00041005  RH  094%=      5-min Rain = 0
KSM2 071157Z 01022KT 00/M01 A3032 RMK A01 T00031006  RH  094%=      5-min Rain = 0
KSM2 071158Z 01021KT 00/M01 A3033 RMK A01 T00031006  RH  094%=      5-min Rain = 0
KSM2 071159Z 01020G25KT 00/M01 A3032 RMK A01 T00031006  RH  094%=      5-min Rain = 0
KSM2 071200Z 01022KT 00/M01 A3032 RMK A01 T00031006  RH  094%=      5-min Rain = 0
KSM2 071201Z 01020KT 00/M01 A3032 RMK A01 T00021006  RH  094%=      5-min Rain = 0
KSM2 071202Z 00020G25KT 00/M01 A3033 RMK A01 T00031005  RH  094%=      5-min Rain = 0
KSM2 071203Z 01018KT 00/M01 A3033 RMK A01 T00021006  RH  094%=      5-min Rain = 0
KSM2 071204Z 00019KT 00/M01 A3033 RMK A01 T00021005  RH  095%=      5-min Rain = 0
KSM2 071205Z 01019KT 00/M01 A3033 RMK A01 T00031005  RH  095%=      5-min Rain = 0
KSM2 071206Z 01014KT 00/M01 A3033 RMK A01 T00031005  RH  095%=      5-min Rain = 0
KSM2 071207Z 01017KT 00/M00 A3033 RMK A01 T00031004  RH  095%=      5-min Rain = 0
KSM2 071208Z 01018KT 00/M00 A3033 RMK A01 T00031004  RH  095%=      5-min Rain = 0
KSM2 071209Z 01016KT 00/M00 A3033 RMK A01 T00031004  RH  095%=      5-min Rain = 0
KSM2 071210Z 01013G18KT 00/M00 A3033 RMK A01 T00031004  RH  095%=      5-min Rain = 0
KSM2 071211Z 01017KT 00/M00 A3033 RMK A01 T00031004  RH  095%=      5-min Rain = 0
KSM2 071212Z 01017KT 00/M00 A3033 RMK A01 T00031004  RH  095%=      5-min Rain = 0
KSM2 071213Z 01014KT 00/M01 A3033 RMK A01 T00031005  RH  095%=      5-min Rain = 0.01
KSM2 071214Z 01013KT 00/M00 A3034 RMK A01 T00031004  RH  095%=      5-min Rain = 0
KSM2 071215Z 01018G23KT 00/M00 A3034 RMK A01 T00031004  RH  095%=      5-min Rain = 0
KSM2 071216Z 01019KT 00/M01 A3034 RMK A01 T00031005  RH  095%=      5-min Rain = 0
KSM2 071217Z 01020KT 00/M01 A3034 RMK A01 T00031005  RH  095%=      5-min Rain = 0
KSM2 071218Z 01019KT 00/M01 A3034 RMK A01 T00031005  RH  095%=      5-min Rain = 0
KSM2 071219Z 01020G25KT 00/M01 A3034 RMK A01 T00021005  RH  095%=      5-min Rain = 0
KSM2 071220Z 01018G25KT 00/M01 A3034 RMK A01 T00031006  RH  094%=      5-min Rain = 0
KSM2 071221Z 02019KT 00/M01 A3034 RMK A01 T00031005  RH  094%=      5-min Rain = 0
KSM2 071222Z 01019KT 00/M01 A3034 RMK A01 T00031006  RH  094%=      5-min Rain = 0
KSM2 071223Z 01017KT 00/M01 A3034 RMK A01 T00031006  RH  094%=      5-min Rain = 0
KSM2 071224Z 01015KT 00/M01 A3034 RMK A01 T00031006  RH  094%=      5-min Rain = 0
KSM2 071225Z 01015KT 00/M01 A3034 RMK A01 T00021006  RH  094%=      5-min Rain = 0
KSM2 071226Z 01014KT 00/M01 A3034 RMK A01 T00031005  RH  095%=      5-min Rain = 0
KSM2 071227Z 00019G24KT 00/M01 A3034 RMK A01 T00031005  RH  095%=      5-min Rain = 0
KSM2 071228Z 00020KT 00/M01 A3034 RMK A01 T00021006  RH  094%=      5-min Rain = 0
KSM2 071229Z 00018KT 00/M01 A3034 RMK A01 T00021007  RH  094%=      5-min Rain = 0
KSM2 071230Z 01017KT 00/M01 A3035 RMK A01 T00021006  RH  094%=      5-min Rain = 0
KSM2 071231Z 01013KT 00/M01 A3035 RMK A01 T00021006  RH  095%=      5-min Rain = 0
KSM2 071232Z 01015G20KT 00/M01 A3035 RMK A01 T00021005  RH  095%=      5-min Rain = 0
KSM2 071233Z 01017KT 00/M01 A3034 RMK A01 T00021005  RH  095%=      5-min Rain = 0
KSM2 071234Z 01017G24KT 00/M01 A3034 RMK A01 T00021005  RH  095%=      5-min Rain = 0
KSM2 071235Z 01019KT 00/M01 A3034 RMK A01 T00021006  RH  095%=      5-min Rain = 0
KSM2 071236Z 01019G24KT 00/M01 A3034 RMK A01 T00021007  RH  094%=      5-min Rain = 0
KSM2 071237Z 01022KT 00/M01 A3034 RMK A01 T00011007  RH  094%=      5-min Rain = 0
KSM2 071238Z 01020G25KT 00/M01 A3034 RMK A01 T00011008  RH  094%=      5-min Rain = 0
KSM2 071239Z 01022G29KT 00/M01 A3034 RMK A01 T00011009  RH  093%=      5-min Rain = 0
KSM2 071240Z 01022KT 00/01 A3035 RMK A01 T000000-9  RH  093%=      5-min Rain = 0
KSM2 071241Z 01021KT 00/01 A3035 RMK A01 T00000-10  RH  093%=      5-min Rain = 0
KSM2 071242Z 01019KT 00/01 A3035 RMK A01 T000000-9  RH  093%=      5-min Rain = 0
KSM2 071243Z 02021G26KT 00/01 A3035 RMK A01 T000000-9  RH  093%=      5-min Rain = 0
KSM2 071244Z 01021G26KT 00/01 A3034 RMK A01 T000000-9  RH  094%=      5-min Rain = 0
KSM2 071245Z 01020KT 00/01 A3035 RMK A01 T000000-9  RH  094%=      5-min Rain = 0
KSM2 071246Z 01019KT 00/01 A3035 RMK A01 T000000-9  RH  094%=      5-min Rain = 0
KSM2 071247Z 01016G21KT 00/M01 A3035 RMK A01 T00011008  RH  094%=      5-min Rain = 0
KSM2 071248Z 01016KT 00/M01 A3035 RMK A01 T00011008  RH  094%=      5-min Rain = 0
KSM2 071249Z 01016G22KT 00/M01 A3035 RMK A01 T00011007  RH  094%=      5-min Rain = 0
KSM2 071250Z 01017KT 00/M01 A3035 RMK A01 T00021006  RH  094%=      5-min Rain = 0
KSM2 071251Z 01019KT 00/M01 A3035 RMK A01 T00011007  RH  094%=      5-min Rain = 0
KSM2 071252Z 01022KT 00/M01 A3035 RMK A01 T00011007  RH  094%=      5-min Rain = 0
KSM2 071253Z 01022G27KT 00/01 A3035 RMK A01 T000000-8  RH  094%=      5-min Rain = 0
KSM2 071254Z 01021G26KT 00/01 A3035 RMK A01 T000000-9  RH  094%=      5-min Rain = 0
KSM2 071255Z 01020KT 00/01 A3035 RMK A01 T00-000-9  RH  094%=      5-min Rain = 0
KSM2 071256Z 01019G26KT 00/01 A3035 RMK A01 T00-000-9  RH  094%=      5-min Rain = 0
KSM2 071257Z 02018KT 00/01 A3036 RMK A01 T00-000-9  RH  094%=      5-min Rain = 0
KSM2 071258Z 01017KT 00/01 A3036 RMK A01 T00-000-9  RH  094%=      5-min Rain = 0
KSM2 071259Z 01018G24KT 00/01 A3036 RMK A01 T00-000-9  RH  094%=      5-min Rain = 0
KSM2 071300Z 01021KT 00/01 A3036 RMK A01 T00-000-9  RH  094%=      5-min Rain = 0
KSM2 071301Z 01019KT 00/01 A3036 RMK A01 T00-000-9  RH  094%=      5-min Rain = 0
KSM2 071302Z 01017KT 00/01 A3036 RMK A01 T00-000-9  RH  094%=      5-min Rain = 0
KSM2 071303Z 01017KT 00/01 A3036 RMK A01 T00-000-9  RH  094%=      5-min Rain = 0
KSM2 071304Z 01016KT 00/01 A3036 RMK A01 T000000-8  RH  094%=      5-min Rain = 0
KSM2 071305Z 01017KT 00/01 A3036 RMK A01 T000000-8  RH  094%=      5-min Rain = 0
KSM2 071306Z 01017KT 00/01 A3036 RMK A01 T000000-8  RH  094%=      5-min Rain = 0
KSM2 071307Z 01016KT 00/01 A3036 RMK A01 T000000-8  RH  094%=      5-min Rain = 0
KSM2 071308Z 01017KT 00/01 A3037 RMK A01 T000000-8  RH  094%=      5-min Rain = 0
KSM2 071309Z 01014G20KT 00/01 A3037 RMK A01 T00-000-8  RH  094%=      5-min Rain = 0
KSM2 071310Z 00018KT 00/01 A3037 RMK A01 T00-000-8  RH  094%=      5-min Rain = 0
KSM2 071311Z 01016KT 00/01 A3038 RMK A01 T00-000-8  RH  094%=      5-min Rain = 0
KSM2 071312Z 01015KT 00/01 A3038 RMK A01 T00-000-8  RH  094%=      5-min Rain = 0
KSM2 071313Z 02015KT 00/01 A3038 RMK A01 T000000-8  RH  095%=      5-min Rain = 0
KSM2 071314Z 01013KT 00/01 A3039 RMK A01 T000000-7  RH  095%=      5-min Rain = 0
KSM2 071315Z 01013KT 00/01 A3039 RMK A01 T000000-7  RH  095%=      5-min Rain = 0
KSM2 071316Z 01013KT 00/01 A3039 RMK A01 T000000-8  RH  095%=      5-min Rain = 0
KSM2 071317Z 01015KT 00/01 A3039 RMK A01 T000000-7  RH  094%=      5-min Rain = 0
KSM2 071318Z 01013KT 00/01 A304 RMK A01 T000000-7  RH  095%=      5-min Rain = 0
KSM2 071319Z 01014KT 00/01 A304 RMK A01 T000000-7  RH  095%=      5-min Rain = 0
KSM2 071320Z 01016KT 00/M01 A304 RMK A01 T00011007  RH  095%=      5-min Rain = 0
KSM2 071321Z 00018KT 00/01 A3039 RMK A01 T000000-7  RH  095%=      5-min Rain = 0
KSM2 071322Z 01017KT 00/01 A3039 RMK A01 T000000-7  RH  095%=      5-min Rain = 0
KSM2 071323Z 36017KT 00/01 A3039 RMK A01 T000000-7  RH  095%=      5-min Rain = 0
KSM2 071324Z 36019KT 00/01 A3039 RMK A01 T000000-7  RH  095%=      5-min Rain = 0
KSM2 071325Z 36019KT 00/01 A3039 RMK A01 T000000-8  RH  095%=      5-min Rain = 0
KSM2 071326Z 36020KT 00/01 A3039 RMK A01 T000000-8  RH  094%=      5-min Rain = 0
KSM2 071327Z 35018KT 00/01 A3039 RMK A01 T00-000-8  RH  094%=      5-min Rain = 0
KSM2 071328Z 00017KT 00/01 A3039 RMK A01 T00-000-8  RH  094%=      5-min Rain = 0
KSM2 071329Z 00018KT 00/01 A3039 RMK A01 T00-000-8  RH  095%=      5-min Rain = 0
KSM2 071330Z 01018KT 00/01 A3039 RMK A01 T00-000-8  RH  094%=      5-min Rain = 0
KSM2 071331Z 01019KT 00/01 A3039 RMK A01 T00-000-9  RH  094%=      5-min Rain = 0
KSM2 071332Z 01020KT M00/M01 A3039 RMK A01 T10011009  RH  094%=      5-min Rain = 0
KSM2 071333Z 01017KT M00/M01 A3039 RMK A01 T10011010  RH  094%=      5-min Rain = 0
KSM2 071334Z 01018KT M00/M01 A3038 RMK A01 T10011010  RH  094%=      5-min Rain = 0
KSM2 071335Z 01018KT M00/M01 A3038 RMK A01 T10011010  RH  094%=      5-min Rain = 0
KSM2 071336Z 01019KT M00/M01 A3038 RMK A01 T10011010  RH  094%=      5-min Rain = 0
KSM2 071337Z 02017KT M00/M01 A3038 RMK A01 T10011010  RH  094%=      5-min Rain = 0
KSM2 071338Z 01019G24KT M00/M01 A3038 RMK A01 T10011009  RH  094%=      5-min Rain = 0
KSM2 071339Z 01019KT M00/M01 A3038 RMK A01 T10011010  RH  094%=      5-min Rain = 0
KSM2 071340Z 01019KT M00/M01 A3038 RMK A01 T10011010  RH  093%=      5-min Rain = 0
KSM2 071341Z 01018KT M00/M01 A3038 RMK A01 T10011010  RH  093%=      5-min Rain = 0
KSM2 071342Z 01017G24KT M00/M01 A3038 RMK A01 T10011011  RH  093%=      5-min Rain = 0
KSM2 071343Z 01021G26KT M00/M01 A3038 RMK A01 T10011011  RH  093%=      5-min Rain = 0
KSM2 071344Z 01020KT M00/M01 A3038 RMK A01 T10021011  RH  093%=      5-min Rain = 0
KSM2 071345Z 01020KT M00/M01 A3038 RMK A01 T10021011  RH  093%=      5-min Rain = 0
KSM2 071346Z 01020KT M00/M01 A3038 RMK A01 T10021011  RH  093%=      5-min Rain = 0
KSM2 071347Z 01020KT M00/M01 A3037 RMK A01 T10011011  RH  094%=      5-min Rain = 0
KSM2 071348Z 01019KT M00/M01 A3037 RMK A01 T10021010  RH  094%=      5-min Rain = 0
KSM2 071349Z 01018G25KT M00/M01 A3037 RMK A01 T10021010  RH  094%=      5-min Rain = 0.01
KSM2 071350Z 01021KT M00/M01 A3037 RMK A01 T10011010  RH  094%=      5-min Rain = 0
KSM2 071351Z 01019KT M00/M01 A3037 RMK A01 T10011010  RH  094%=      5-min Rain = 0
KSM2 071352Z 01017G22KT M00/M01 A3037 RMK A01 T10011010  RH  094%=      5-min Rain = 0
KSM2 071353Z 01019G26KT M00/M01 A3037 RMK A01 T10011010  RH  094%=      5-min Rain = 0
KSM2 071354Z 01020KT M00/M01 A3037 RMK A01 T10021010  RH  094%=      5-min Rain = 0
KSM2 071355Z 01018KT M00/M01 A3037 RMK A01 T10021011  RH  094%=      5-min Rain = 0
KSM2 071356Z 01018KT M00/M01 A3038 RMK A01 T10021011  RH  094%=      5-min Rain = 0
KSM2 071357Z 00018KT M00/M01 A3038 RMK A01 T10021011  RH  094%=      5-min Rain = 0
KSM2 071358Z 00017KT M00/M01 A3038 RMK A01 T10021011  RH  094%=      5-min Rain = 0
KSM2 071359Z 01019KT M00/M01 A3039 RMK A01 T10021011  RH  094%=      5-min Rain = 0
KSM2 071400Z 01014KT M00/M01 A3039 RMK A01 T10021011  RH  094%=      5-min Rain = 0
KSM2 071401Z 01013G18KT M00/M01 A3039 RMK A01 T10021011  RH  094%=      5-min Rain = 0.01
KSM2 071402Z 01017KT M00/M01 A3038 RMK A01 T10021011  RH  094%=      5-min Rain = 0
KSM2 071403Z 01014KT M00/M01 A3039 RMK A01 T10021011  RH  094%=      5-min Rain = 0
KSM2 071404Z 01012KT M00/M01 A3039 RMK A01 T10021011  RH  094%=      5-min Rain = 0
KSM2 071405Z 01012KT M00/M01 A3039 RMK A01 T10011009  RH  094%=      5-min Rain = 0
KSM2 071406Z 02014KT M00/M01 A3039 RMK A01 T10011009  RH  094%=      5-min Rain = 0
KSM2 071407Z 01013KT M00/M01 A3039 RMK A01 T10011010  RH  094%=      5-min Rain = 0
KSM2 071408Z 01015G20KT M00/M01 A3039 RMK A01 T10011010  RH  094%=      5-min Rain = 0
KSM2 071409Z 01017KT M00/M01 A3039 RMK A01 T10021010  RH  094%=      5-min Rain = 0
KSM2 071410Z 01016G21KT M00/M01 A3039 RMK A01 T10021011  RH  094%=      5-min Rain = 0
KSM2 071411Z 01016KT M00/M01 A3039 RMK A01 T10021011  RH  093%=      5-min Rain = 0
KSM2 071412Z 01014KT M00/M01 A304 RMK A01 T10021011  RH  093%=      5-min Rain = 0
KSM2 071413Z 01013KT M00/M01 A304 RMK A01 T10011010  RH  094%=      5-min Rain = 0
KSM2 071414Z 00014KT M00/M01 A304 RMK A01 T10011009  RH  094%=      5-min Rain = 0
KSM2 071415Z 01014KT M00/M01 A304 RMK A01 T10011009  RH  094%=      5-min Rain = 0
KSM2 071416Z 00014KT M00/M01 A3041 RMK A01 T10011009  RH  094%=      5-min Rain = 0
KSM2 071417Z 00013KT M00/M01 A3041 RMK A01 T10011009  RH  094%=      5-min Rain = 0
KSM2 071418Z 35015KT M00/M01 A3041 RMK A01 T10011009  RH  094%=      5-min Rain = 0
KSM2 071419Z 00014KT M00/M01 A3041 RMK A01 T10011010  RH  094%=      5-min Rain = 0
KSM2 071420Z 36012KT M00/M01 A3042 RMK A01 T10021010  RH  094%=      5-min Rain = 0
KSM2 071421Z 36012KT M00/M01 A3042 RMK A01 T10011009  RH  094%=      5-min Rain = 0
KSM2 071422Z 36014KT M00/M01 A3042 RMK A01 T10011009  RH  094%=      5-min Rain = 0
KSM2 071423Z 00013KT M00/M01 A3042 RMK A01 T10011009  RH  094%=      5-min Rain = 0
KSM2 071424Z 36014KT M00/M01 A3042 RMK A01 T10011009  RH  094%=      5-min Rain = 0
KSM2 071425Z 36016KT M00/M01 A3042 RMK A01 T10011009  RH  094%=      5-min Rain = 0
KSM2 071426Z 01016KT M00/M01 A3042 RMK A01 T10011010  RH  094%=      5-min Rain = 0
KSM2 071427Z 01015KT M00/M01 A3042 RMK A01 T10021011  RH  094%=      5-min Rain = 0
KSM2 071428Z 01014KT M00/M01 A3042 RMK A01 T10021011  RH  094%=      5-min Rain = 0
KSM2 071429Z 01013KT M00/M01 A3042 RMK A01 T10021012  RH  094%=      5-min Rain = 0
KSM2 071430Z 01012KT M00/M01 A3043 RMK A01 T10021012  RH  094%=      5-min Rain = 0
KSM2 071431Z 01011KT M00/M01 A3043 RMK A01 T10021011  RH  094%=      5-min Rain = 0
KSM2 071432Z 01009KT M00/M01 A3044 RMK A01 T10011010  RH  094%=      5-min Rain = 0
KSM2 071433Z 36010KT M00/M01 A3044 RMK A01 T10011009  RH  094%=      5-min Rain = 0
KSM2 071434Z 00012KT M00/M01 A3044 RMK A01 T10011009  RH  094%=      5-min Rain = 0
KSM2 071435Z 00012KT M00/M01 A3043 RMK A01 T10011010  RH  094%=      5-min Rain = 0
KSM2 071436Z 01014KT M00/M01 A3043 RMK A01 T10021010  RH  094%=      5-min Rain = 0
KSM2 071437Z 00014KT M00/M01 A3043 RMK A01 T10031011  RH  094%=      5-min Rain = 0
KSM2 071438Z 01014KT M00/M01 A3043 RMK A01 T10031012  RH  094%=      5-min Rain = 0
KSM2 071439Z 01014KT M00/M01 A3043 RMK A01 T10041012  RH  094%=      5-min Rain = 0
KSM2 071440Z 00014KT M00/M01 A3042 RMK A01 T10041012  RH  094%=      5-min Rain = 0
KSM2 071441Z 00014KT M00/M01 A3042 RMK A01 T10041012  RH  094%=      5-min Rain = 0
KSM2 071442Z 01014KT M00/M01 A3042 RMK A01 T10041012  RH  094%=      5-min Rain = 0
KSM2 071443Z 01013KT M00/M01 A3042 RMK A01 T10041012  RH  094%=      5-min Rain = 0
KSM2 071444Z 00013KT M00/M01 A3042 RMK A01 T10041012  RH  094%=      5-min Rain = 0
KSM2 071445Z 00012KT M00/M01 A3042 RMK A01 T10041012  RH  094%=      5-min Rain = 0
KSM2 071446Z 00012KT M00/M01 A3042 RMK A01 T10041012  RH  095%=      5-min Rain = 0
KSM2 071447Z 00013KT M00/M01 A3042 RMK A01 T10041011  RH  095%=      5-min Rain = 0
KSM2 071448Z 00011KT M00/M01 A3042 RMK A01 T10041011  RH  095%=      5-min Rain = 0
KSM2 071449Z 00012KT M00/M01 A3042 RMK A01 T10031011  RH  095%=      5-min Rain = 0
KSM2 071450Z 00011KT M00/M01 A3042 RMK A01 T10031011  RH  095%=      5-min Rain = 0
KSM2 071451Z 00012KT M00/M01 A3043 RMK A01 T10031010  RH  095%=      5-min Rain = 0
KSM2 071452Z 00012KT M00/M01 A3043 RMK A01 T10031011  RH  095%=      5-min Rain = 0
KSM2 071453Z 00011KT M00/M01 A3043 RMK A01 T10041011  RH  095%=      5-min Rain = 0
KSM2 071454Z 01011KT M00/M01 A3043 RMK A01 T10041011  RH  095%=      5-min Rain = 0
KSM2 071455Z 01011KT M00/M01 A3043 RMK A01 T10041011  RH  095%=      5-min Rain = 0
KSM2 071456Z 01010KT M00/M01 A3043 RMK A01 T10041011  RH  095%=      5-min Rain = 0
KSM2 071457Z 01010KT M00/M01 A3043 RMK A01 T10041011  RH  095%=      5-min Rain = 0
KSM2 071458Z 01009KT M00/M01 A3043 RMK A01 T10041011  RH  095%=      5-min Rain = 0
KSM2 071459Z 01010KT M00/M01 A3043 RMK A01 T10041011  RH  095%=      5-min Rain = 0
KSM2 071500Z 01009KT M00/M01 A3043 RMK A01 T10041011  RH  095%=      5-min Rain = 0
KSM2 071501Z 01009KT M00/M01 A3043 RMK A01 T10041011  RH  095%=      5-min Rain = 0
KSM2 071502Z 01009KT M00/M01 A3043 RMK A01 T10041011  RH  095%=      5-min Rain = 0
KSM2 071503Z 01010KT M00/M01 A3043 RMK A01 T10041011  RH  095%=      5-min Rain = 0
KSM2 071504Z 01010KT M00/M01 A3043 RMK A01 T10041012  RH  095%=      5-min Rain = 0
KSM2 071505Z 01010KT M00/M01 A3043 RMK A01 T10041012  RH  095%=      5-min Rain = 0
KSM2 071506Z 02010KT M00/M01 A3043 RMK A01 T10041012  RH  095%=      5-min Rain = 0
KSM2 071507Z 01008KT M00/M01 A3043 RMK A01 T10041012  RH  095%=      5-min Rain = 0
KSM2 071508Z 02010KT M00/M01 A3043 RMK A01 T10041011  RH  095%=      5-min Rain = 0
KSM2 071509Z 01010KT M00/M01 A3042 RMK A01 T10041011  RH  095%=      5-min Rain = 0.01
KSM2 071510Z 01011KT M00/M01 A3042 RMK A01 T10041012  RH  095%=      5-min Rain = 0
KSM2 071511Z 01008KT M01/M01 A3043 RMK A01 T10051012  RH  095%=      5-min Rain = 0
KSM2 071512Z 01006KT M00/M01 A3043 RMK A01 T10031011  RH  095%=      5-min Rain = 0
KSM2 071513Z 01007KT M00/M01 A3043 RMK A01 T10031009  RH  095%=      5-min Rain = 0
KSM2 071514Z 01008KT M00/M01 A3043 RMK A01 T10031010  RH  095%=      5-min Rain = 0
KSM2 071515Z 01010KT M00/M01 A3043 RMK A01 T10031010  RH  095%=      5-min Rain = 0
KSM2 071516Z 01010KT M00/M01 A3043 RMK A01 T10041011  RH  095%=      5-min Rain = 0
KSM2 071517Z 01010KT M00/M01 A3043 RMK A01 T10041012  RH  095%=      5-min Rain = 0
KSM2 071518Z 01010KT M01/M01 A3043 RMK A01 T10051012  RH  095%=      5-min Rain = 0
KSM2 071519Z 01009KT M00/M01 A3044 RMK A01 T10041012  RH  095%=      5-min Rain = 0
KSM2 071520Z 01011KT M00/M01 A3044 RMK A01 T10041011  RH  095%=      5-min Rain = 0
KSM2 071521Z 01012KT M01/M01 A3043 RMK A01 T10051012  RH  095%=      5-min Rain = 0
KSM2 071522Z 00009KT M01/M01 A3044 RMK A01 T10051013  RH  095%=      5-min Rain = 0
KSM2 071523Z 01009KT M01/M01 A3044 RMK A01 T10051012  RH  095%=      5-min Rain = 0
KSM2 071524Z 01009KT M01/M01 A3044 RMK A01 T10051012  RH  095%=      5-min Rain = 0
KSM2 071525Z 01010KT M00/M01 A3044 RMK A01 T10041012  RH  095%=      5-min Rain = 0
KSM2 071526Z 01008KT M00/M01 A3044 RMK A01 T10041011  RH  095%=      5-min Rain = 0
KSM2 071527Z 01009KT M00/M01 A3044 RMK A01 T10041011  RH  095%=      5-min Rain = 0
KSM2 071528Z 01009KT M00/M01 A3044 RMK A01 T10041011  RH  095%=      5-min Rain = 0
KSM2 071529Z 01008KT M00/M01 A3044 RMK A01 T10041011  RH  095%=      5-min Rain = 0
KSM2 071530Z 01008KT M00/M01 A3045 RMK A01 T10031010  RH  095%=      5-min Rain = 0
KSM2 071531Z 00009KT M00/M01 A3044 RMK A01 T10031010  RH  095%=      5-min Rain = 0
KSM2 071532Z 01009KT M00/M01 A3044 RMK A01 T10031010  RH  095%=      5-min Rain = 0
KSM2 071533Z 01008KT M00/M01 A3044 RMK A01 T10031010  RH  095%=      5-min Rain = 0
KSM2 071534Z 00009KT M00/M01 A3044 RMK A01 T10031010  RH  095%=      5-min Rain = 0
KSM2 071535Z 01010KT M00/M01 A3044 RMK A01 T10031010  RH  095%=      5-min Rain = 0
KSM2 071536Z 01010KT M00/M01 A3044 RMK A01 T10031010  RH  095%=      5-min Rain = 0
KSM2 071537Z 01010KT M00/M01 A3044 RMK A01 T10031011  RH  095%=      5-min Rain = 0
KSM2 071538Z 01009KT M00/M01 A3044 RMK A01 T10031010  RH  095%=      5-min Rain = 0
KSM2 071539Z 01010KT M00/M01 A3044 RMK A01 T10031010  RH  095%=      5-min Rain = 0
KSM2 071540Z 01008KT M00/M01 A3045 RMK A01 T10031010  RH  095%=      5-min Rain = 0
KSM2 071541Z 01008KT M00/M01 A3045 RMK A01 T10021009  RH  095%=      5-min Rain = 0
KSM2 071542Z 01008KT M00/M01 A3045 RMK A01 T10021009  RH  095%=      5-min Rain = 0
KSM2 071543Z 01009KT M00/M01 A3045 RMK A01 T10021009  RH  095%=      5-min Rain = 0
KSM2 071544Z 01009KT M00/M01 A3045 RMK A01 T10021009  RH  095%=      5-min Rain = 0
KSM2 071545Z 01009KT M00/M01 A3044 RMK A01 T10021009  RH  095%=      5-min Rain = 0
KSM2 071546Z 01009KT M00/M01 A3045 RMK A01 T10021009  RH  095%=      5-min Rain = 0
KSM2 071547Z 01009KT M00/M01 A3045 RMK A01 T10021009  RH  095%=      5-min Rain = 0
KSM2 071548Z 01009KT M00/M01 A3045 RMK A01 T10021009  RH  095%=      5-min Rain = 0
KSM2 071549Z 01009KT M00/M01 A3045 RMK A01 T10011008  RH  095%=      5-min Rain = 0
KSM2 071550Z 01009KT M00/M01 A3044 RMK A01 T10011008  RH  095%=      5-min Rain = 0
KSM2 071551Z 01008KT M00/M01 A3044 RMK A01 T10011008  RH  095%=      5-min Rain = 0
KSM2 071552Z 01008KT M00/M01 A3044 RMK A01 T10011008  RH  095%=      5-min Rain = 0
KSM2 071553Z 01007KT 00/01 A3044 RMK A01 T00-000-8  RH  095%=      5-min Rain = 0
KSM2 071554Z 01006KT M00/M01 A3045 RMK A01 T10011008  RH  095%=      5-min Rain = 0
KSM2 071555Z 01007KT 00/01 A3045 RMK A01 T00-000-7  RH  095%=      5-min Rain = 0
KSM2 071556Z 01008KT 00/01 A3045 RMK A01 T00-000-7  RH  095%=      5-min Rain = 0
KSM2 071557Z 01008KT 00/01 A3045 RMK A01 T00-000-7  RH  095%=      5-min Rain = 0
KSM2 071558Z 01009KT M00/M01 A3045 RMK A01 T10011008  RH  095%=      5-min Rain = 0
KSM2 071559Z 01007KT M00/M01 A3046 RMK A01 T10011009  RH  095%=      5-min Rain = 0
KSM2 071600Z 01009KT M00/M01 A3046 RMK A01 T10011009  RH  095%=      5-min Rain = 0
KSM2 071601Z 00009KT M00/M01 A3046 RMK A01 T10011010  RH  094%=      5-min Rain = 0
KSM2 071602Z 01008KT M00/M01 A3046 RMK A01 T10011009  RH  094%=      5-min Rain = 0
KSM2 071603Z 01009KT M00/M01 A3046 RMK A01 T10021010  RH  094%=      5-min Rain = 0
KSM2 071604Z 01009KT M00/M01 A3046 RMK A01 T10011010  RH  094%=      5-min Rain = 0
KSM2 071605Z 01008KT M00/M01 A3046 RMK A01 T10011010  RH  094%=      5-min Rain = 0
KSM2 071606Z 01007KT M00/M01 A3046 RMK A01 T10011010  RH  094%=      5-min Rain = 0
KSM2 071607Z 01007KT M00/M01 A3046 RMK A01 T10011010  RH  094%=      5-min Rain = 0
KSM2 071608Z 01009KT M00/M01 A3046 RMK A01 T10011010  RH  094%=      5-min Rain = 0
KSM2 071609Z 01007KT M00/M01 A3046 RMK A01 T10011010  RH  093%=      5-min Rain = 0
KSM2 071610Z 01007KT M00/M01 A3046 RMK A01 T10011010  RH  094%=      5-min Rain = 0
KSM2 071611Z 01007KT M00/M01 A3046 RMK A01 T10011009  RH  094%=      5-min Rain = 0
KSM2 071612Z 01008KT M00/M01 A3046 RMK A01 T10011010  RH  094%=      5-min Rain = 0
KSM2 071613Z 01008KT M00/M01 A3046 RMK A01 T10011010  RH  094%=      5-min Rain = 0
KSM2 071614Z 01006KT M00/M01 A3046 RMK A01 T10011010  RH  093%=      5-min Rain = 0
KSM2 071615Z 01006KT 00/01 A3046 RMK A01 T00-000-9  RH  094%=      5-min Rain = 0
KSM2 071616Z 02005KT 00/01 A3046 RMK A01 T000000-8  RH  094%=      5-min Rain = 0
KSM2 071617Z 02006KT 00/M01 A3046 RMK A01 T00011007  RH  094%=      5-min Rain = 0
KSM2 071618Z 02006KT 00/M01 A3045 RMK A01 T00011008  RH  094%=      5-min Rain = 0
KSM2 071619Z 02007KT 00/M01 A3045 RMK A01 T00011008  RH  094%=      5-min Rain = 0
KSM2 071620Z 03006KT 00/M01 A3045 RMK A01 T00011008  RH  094%=      5-min Rain = 0
KSM2 071621Z 02007KT 00/M01 A3045 RMK A01 T00011008  RH  094%=      5-min Rain = 0
KSM2 071622Z 02007KT 00/M01 A3045 RMK A01 T00011008  RH  094%=      5-min Rain = 0
KSM2 071623Z 03008KT 00/M01 A3045 RMK A01 T00011008  RH  094%=      5-min Rain = 0
KSM2 071624Z 02007KT 00/01 A3045 RMK A01 T000000-8  RH  094%=      5-min Rain = 0
KSM2 071625Z 02007KT 00/01 A3045 RMK A01 T000000-8  RH  094%=      5-min Rain = 0
KSM2 071626Z 02007KT 00/M01 A3045 RMK A01 T00011008  RH  094%=      5-min Rain = 0
KSM2 071627Z 01006KT 00/01 A3045 RMK A01 T000000-8  RH  094%=      5-min Rain = 0
KSM2 071628Z 01007KT 00/M01 A3045 RMK A01 T00011008  RH  094%=      5-min Rain = 0.01
KSM2 071629Z 01006KT 00/01 A3045 RMK A01 T000000-8  RH  094%=      5-min Rain = 0
KSM2 071630Z 01006KT 00/01 A3044 RMK A01 T000000-8  RH  094%=      5-min Rain = 0
KSM2 071631Z 01007KT 00/01 A3044 RMK A01 T00-000-9  RH  094%=      5-min Rain = 0
KSM2 071632Z 02007KT M00/M01 A3044 RMK A01 T10011009  RH  094%=      5-min Rain = 0
KSM2 071633Z 01006KT M00/M01 A3044 RMK A01 T10011009  RH  094%=      5-min Rain = 0
KSM2 071634Z 02005KT M00/M01 A3044 RMK A01 T10011009  RH  094%=      5-min Rain = 0
KSM2 071635Z 01007KT 00/01 A3044 RMK A01 T000000-8  RH  095%=      5-min Rain = 0
KSM2 071636Z 02006KT 00/01 A3044 RMK A01 T000000-8  RH  094%=      5-min Rain = 0
KSM2 071637Z 02006KT 00/01 A3044 RMK A01 T00-000-9  RH  094%=      5-min Rain = 0
KSM2 071638Z 01006KT 00/01 A3044 RMK A01 T000000-8  RH  094%=      5-min Rain = 0
KSM2 071639Z 01007KT 00/01 A3044 RMK A01 T00-000-9  RH  094%=      5-min Rain = 0.01
KSM2 071640Z 01007KT 00/01 A3045 RMK A01 T00-000-9  RH  094%=      5-min Rain = 0
KSM2 071641Z 01007KT M00/M01 A3045 RMK A01 T10011010  RH  094%=      5-min Rain = 0
KSM2 071642Z 01006KT M00/M01 A3045 RMK A01 T10011010  RH  094%=      5-min Rain = 0
KSM2 071643Z 00006KT M00/M01 A3045 RMK A01 T10011009  RH  094%=      5-min Rain = 0
KSM2 071644Z 01006KT 00/01 A3045 RMK A01 T00-000-9  RH  094%=      5-min Rain = 0
KSM2 071645Z 01006KT 00/01 A3045 RMK A01 T00-000-9  RH  094%=      5-min Rain = 0
KSM2 071646Z 01006KT 00/01 A3045 RMK A01 T00-000-9  RH  094%=      5-min Rain = 0
KSM2 071647Z 01006KT 00/01 A3045 RMK A01 T00-000-9  RH  094%=      5-min Rain = 0
KSM2 071648Z 01007KT M00/M01 A3044 RMK A01 T10011010  RH  094%=      5-min Rain = 0
KSM2 071649Z 01005KT M00/M01 A3044 RMK A01 T10011009  RH  094%=      5-min Rain = 0
KSM2 071650Z 01006KT 00/01 A3045 RMK A01 T00-000-8  RH  094%=      5-min Rain = 0
KSM2 071651Z 02006KT 00/01 A3044 RMK A01 T00-000-8  RH  094%=      5-min Rain = 0
KSM2 071652Z 01007KT 00/01 A3044 RMK A01 T00-000-9  RH  094%=      5-min Rain = 0
KSM2 071653Z 02007KT M00/M01 A3045 RMK A01 T10011010  RH  094%=      5-min Rain = 0
KSM2 071654Z 02006KT M00/M01 A3045 RMK A01 T10011010  RH  094%=      5-min Rain = 0.01
KSM2 071655Z 02006KT M00/M01 A3045 RMK A01 T10011010  RH  094%=      5-min Rain = 0
KSM2 071656Z 02006KT 00/01 A3045 RMK A01 T000000-8  RH  094%=      5-min Rain = 0
KSM2 071657Z 02006KT 00/01 A3045 RMK A01 T000000-8  RH  094%=      5-min Rain = 0
KSM2 071658Z 01007KT 00/01 A3045 RMK A01 T000000-8  RH  094%=      5-min Rain = 0
KSM2 071659Z 01006KT 00/01 A3044 RMK A01 T00-000-9  RH  094%=      5-min Rain = 0
KSM2 071700Z 02006KT 00/01 A3044 RMK A01 T00-000-9  RH  094%=      5-min Rain = 0
KSM2 071701Z 01005KT 00/01 A3045 RMK A01 T000000-8  RH  094%=      5-min Rain = 0
KSM2 071702Z 02007KT 00/01 A3044 RMK A01 T000000-7  RH  095%=      5-min Rain = 0
KSM2 071703Z 02008KT 00/01 A3044 RMK A01 T000000-8  RH  094%=      5-min Rain = 0
KSM2 071704Z 02006KT 00/01 A3044 RMK A01 T000000-8  RH  094%=      5-min Rain = 0
KSM2 071705Z 02007KT 00/01 A3044 RMK A01 T00-000-8  RH  094%=      5-min Rain = 0
KSM2 071706Z 02007KT 00/01 A3044 RMK A01 T000000-8  RH  094%=      5-min Rain = 0
KSM2 071707Z 02007KT 00/M01 A3044 RMK A01 T00011007  RH  094%=      5-min Rain = 0
KSM2 071708Z 02007KT 00/M01 A3044 RMK A01 T00011007  RH  094%=      5-min Rain = 0
KSM2 071709Z 03007KT 00/M01 A3044 RMK A01 T00011007  RH  094%=      5-min Rain = 0
KSM2 071710Z 02007KT 00/M01 A3044 RMK A01 T00011007  RH  095%=      5-min Rain = 0
KSM2 071711Z 02006KT 00/M01 A3044 RMK A01 T00011007  RH  095%=      5-min Rain = 0
KSM2 071712Z 03006KT 00/M01 A3044 RMK A01 T00021006  RH  095%=      5-min Rain = 0
KSM2 071713Z 02006KT 00/M01 A3044 RMK A01 T00021005  RH  095%=      5-min Rain = 0
KSM2 071714Z 02005KT 00/M01 A3044 RMK A01 T00021005  RH  095%=      5-min Rain = 0
KSM2 071715Z 01006KT 00/M00 A3044 RMK A01 T00031004  RH  095%=      5-min Rain = 0
KSM2 071716Z 02006KT 00/M01 A3043 RMK A01 T00021005  RH  095%=      5-min Rain = 0
KSM2 071717Z 01005KT 00/M01 A3043 RMK A01 T00031005  RH  095%=      5-min Rain = 0
KSM2 071718Z 02006KT 00/M00 A3043 RMK A01 T00031004  RH  095%=      5-min Rain = 0
KSM2 071719Z 01006KT 00/M01 A3044 RMK A01 T00021005  RH  095%=      5-min Rain = 0.01
KSM2 071720Z 01006KT 00/M01 A3044 RMK A01 T00021005  RH  095%=      5-min Rain = 0
KSM2 071721Z 01006KT 00/M01 A3044 RMK A01 T00011006  RH  095%=      5-min Rain = 0
KSM2 071722Z 01005KT 00/M01 A3045 RMK A01 T00011007  RH  094%=      5-min Rain = 0
KSM2 071723Z 01005KT 00/01 A3045 RMK A01 T000000-7  RH  094%=      5-min Rain = 0
KSM2 071724Z 01005KT 00/M01 A3045 RMK A01 T00011006  RH  095%=      5-min Rain = 0
KSM2 071725Z 01005KT 00/M01 A3045 RMK A01 T00011007  RH  095%=      5-min Rain = 0
KSM2 071726Z 01005KT 00/M01 A3045 RMK A01 T00011007  RH  095%=      5-min Rain = 0
KSM2 071727Z 02005KT 00/M01 A3045 RMK A01 T00011007  RH  095%=      5-min Rain = 0
KSM2 071728Z 01006KT 00/M01 A3045 RMK A01 T00011006  RH  095%=      5-min Rain = 0
KSM2 071729Z 00005KT 00/M01 A3045 RMK A01 T00011007  RH  095%=      5-min Rain = 0
KSM2 071730Z 01005KT 00/M01 A3045 RMK A01 T00011007  RH  095%=      5-min Rain = 0
KSM2 071731Z 02005KT 00/M01 A3046 RMK A01 T00011006  RH  095%=      5-min Rain = 0
KSM2 071732Z 00005KT 00/M01 A3046 RMK A01 T00011006  RH  095%=      5-min Rain = 0
KSM2 071733Z 01005KT 00/M01 A3046 RMK A01 T00011007  RH  095%=      5-min Rain = 0
KSM2 071734Z 01005KT 00/M01 A3045 RMK A01 T00011007  RH  094%=      5-min Rain = 0
KSM2 071735Z 01006KT 00/M01 A3045 RMK A01 T00011007  RH  094%=      5-min Rain = 0
KSM2 071736Z 01005KT 00/M01 A3045 RMK A01 T00011008  RH  094%=      5-min Rain = 0
KSM2 071737Z 02006KT 00/01 A3045 RMK A01 T000000-8  RH  094%=      5-min Rain = 0
KSM2 071738Z 02005KT 00/01 A3045 RMK A01 T000000-8  RH  094%=      5-min Rain = 0
KSM2 071739Z 01005KT 00/M01 A3045 RMK A01 T00011007  RH  095%=      5-min Rain = 0
KSM2 071740Z 01005KT 00/M01 A3045 RMK A01 T00011007  RH  095%=      5-min Rain = 0
KSM2 071741Z 01005KT 00/M01 A3045 RMK A01 T00011007  RH  094%=      5-min Rain = 0
KSM2 071742Z 02004KT 00/M01 A3046 RMK A01 T00011007  RH  095%=      5-min Rain = 0
KSM2 071743Z 01004KT 00/M01 A3046 RMK A01 T00021005  RH  095%=      5-min Rain = 0
KSM2 071744Z 02005KT 00/M01 A3046 RMK A01 T00021005  RH  095%=      5-min Rain = 0
KSM2 071745Z 01006KT 00/M01 A3046 RMK A01 T00021005  RH  095%=      5-min Rain = 0
KSM2 071746Z 01005KT 00/M01 A3046 RMK A01 T00011006  RH  095%=      5-min Rain = 0
KSM2 071747Z 02005KT 00/M01 A3046 RMK A01 T00011007  RH  094%=      5-min Rain = 0
KSM2 071748Z 01005KT 00/M01 A3046 RMK A01 T00011007  RH  095%=      5-min Rain = 0
KSM2 071749Z 01005KT 00/M01 A3046 RMK A01 T00011006  RH  095%=      5-min Rain = 0
KSM2 071750Z 01005KT 00/M01 A3046 RMK A01 T00011006  RH  095%=      5-min Rain = 0
KSM2 071751Z 01005KT 00/M01 A3046 RMK A01 T00011006  RH  095%=      5-min Rain = 0
KSM2 071752Z 02006KT 00/M01 A3046 RMK A01 T00021005  RH  095%=      5-min Rain = 0
KSM2 071753Z 02005KT 00/M01 A3046 RMK A01 T00021005  RH  095%=      5-min Rain = 0
KSM2 071754Z 02005KT 00/M01 A3046 RMK A01 T00031005  RH  095%=      5-min Rain = 0
KSM2 071755Z 02005KT 00/M01 A3046 RMK A01 T00031005  RH  095%=      5-min Rain = 0
KSM2 071756Z 02004KT 00/M01 A3046 RMK A01 T00031005  RH  095%=      5-min Rain = 0
KSM2 071757Z 01005KT 00/M01 A3046 RMK A01 T00031005  RH  095%=      5-min Rain = 0
KSM2 071758Z 01004KT 00/M01 A3046 RMK A01 T00021005  RH  095%=      5-min Rain = 0
KSM2 071759Z 01004KT 00/M00 A3046 RMK A01 T00031004  RH  095%=      5-min Rain = 0
KSM2 071800Z 01005KT 00/M00 A3046 RMK A01 T00031003  RH  095%=      5-min Rain = 0
KSM2 071801Z 01004KT 00/M00 A3046 RMK A01 T00031004  RH  095%=      5-min Rain = 0.01
KSM2 071802Z 01004KT 00/M00 A3046 RMK A01 T00031004  RH  095%=      5-min Rain = 0
KSM2 071803Z 01004KT 00/M01 A3046 RMK A01 T00021005  RH  095%=      5-min Rain = 0
KSM2 071804Z 00005KT 00/M01 A3046 RMK A01 T00031005  RH  095%=      5-min Rain = 0
KSM2 071805Z 00005KT 00/M01 A3046 RMK A01 T00021005  RH  095%=      5-min Rain = 0
KSM2 071806Z 00004KT 00/M01 A3046 RMK A01 T00021005  RH  095%=      5-min Rain = 0
KSM2 071807Z 00004KT 00/M00 A3046 RMK A01 T00031004  RH  095%=      5-min Rain = 0
KSM2 071808Z 00006KT 00/M00 A3046 RMK A01 T00031004  RH  095%=      5-min Rain = 0
KSM2 071809Z 36005KT 00/M01 A3046 RMK A01 T00021005  RH  095%=      5-min Rain = 0
KSM2 071810Z 00006KT 00/M01 A3045 RMK A01 T00021005  RH  095%=      5-min Rain = 0
KSM2 071811Z 00005KT 00/M01 A3045 RMK A01 T00011006  RH  095%=      5-min Rain = 0
KSM2 071812Z 01004KT 00/M01 A3045 RMK A01 T00011006  RH  095%=      5-min Rain = 0
KSM2 071813Z 01005KT 00/M01 A3045 RMK A01 T00011006  RH  095%=      5-min Rain = 0
KSM2 071814Z 01004KT 00/M01 A3045 RMK A01 T00011006  RH  095%=      5-min Rain = 0
KSM2 071815Z 00005KT 00/M01 A3045 RMK A01 T00021005  RH  095%=      5-min Rain = 0
KSM2 071816Z 00006KT 00/M01 A3045 RMK A01 T00011006  RH  095%=      5-min Rain = 0
KSM2 071817Z 00006KT 00/01 A3045 RMK A01 T000000-7  RH  095%=      5-min Rain = 0
KSM2 071818Z 00006KT 00/01 A3045 RMK A01 T000000-7  RH  095%=      5-min Rain = 0
KSM2 071819Z 00005KT 00/01 A3045 RMK A01 T00-000-7  RH  095%=      5-min Rain = 0
KSM2 071820Z 01006KT 00/M01 A3045 RMK A01 T00011006  RH  095%=      5-min Rain = 0
KSM2 071821Z 01005KT 00/M01 A3045 RMK A01 T00011006  RH  095%=      5-min Rain = 0
KSM2 071822Z 01006KT 00/M01 A3045 RMK A01 T00011006  RH  095%=      5-min Rain = 0
KSM2 071823Z 01005KT 00/01 A3045 RMK A01 T00-000-7  RH  095%=      5-min Rain = 0
KSM2 071824Z 01004KT 00/M01 A3045 RMK A01 T00011006  RH  095%=      5-min Rain = 0
KSM2 071825Z 02004KT 00/M01 A3045 RMK A01 T00011005  RH  095%=      5-min Rain = 0
KSM2 071826Z 02004KT 00/M01 A3046 RMK A01 T00021005  RH  095%=      5-min Rain = 0
KSM2 071827Z 01004KT 00/M01 A3046 RMK A01 T00021005  RH  095%=      5-min Rain = 0
KSM2 071828Z 01004KT 00/M01 A3045 RMK A01 T00021005  RH  095%=      5-min Rain = 0
KSM2 071829Z 01003KT 00/M01 A3046 RMK A01 T00021005  RH  095%=      5-min Rain = 0
KSM2 071830Z 01004KT 00/M00 A3045 RMK A01 T00021004  RH  095%=      5-min Rain = 0
KSM2 071831Z 02005KT 00/M01 A3045 RMK A01 T00021005  RH  095%=      5-min Rain = 0
KSM2 071832Z 01004KT 00/M01 A3045 RMK A01 T00021005  RH  095%=      5-min Rain = 0
KSM2 071833Z 01004KT 00/M01 A3046 RMK A01 T00021005  RH  095%=      5-min Rain = 0
KSM2 071834Z 00005KT 00/M01 A3046 RMK A01 T00021005  RH  095%=      5-min Rain = 0
KSM2 071835Z 00005KT 00/M01 A3046 RMK A01 T00021005  RH  095%=      5-min Rain = 0
KSM2 071836Z 01004KT 00/M01 A3046 RMK A01 T00021006  RH  095%=      5-min Rain = 0
KSM2 071837Z 00004KT 00/M01 A3046 RMK A01 T00021005  RH  095%=      5-min Rain = 0
KSM2 071838Z 36005KT 00/M01 A3046 RMK A01 T00021005  RH  095%=      5-min Rain = 0
KSM2 071839Z 00005KT 00/M01 A3046 RMK A01 T00021006  RH  095%=      5-min Rain = 0
KSM2 071840Z 36004KT 00/M01 A3046 RMK A01 T00021006  RH  095%=      5-min Rain = 0
KSM2 071841Z 01005KT 00/M01 A3046 RMK A01 T00021006  RH  095%=      5-min Rain = 0
KSM2 071842Z 01004KT 00/M01 A3046 RMK A01 T00021005  RH  095%=      5-min Rain = 0
KSM2 071843Z 01005KT 00/M01 A3046 RMK A01 T00021006  RH  094%=      5-min Rain = 0
KSM2 071844Z 01004KT 00/M01 A3046 RMK A01 T00021006  RH  094%=      5-min Rain = 0
KSM2 071845Z 02004KT 00/M01 A3047 RMK A01 T00031005  RH  095%=      5-min Rain = 0
KSM2 071846Z 01004KT 00/M01 A3047 RMK A01 T00031005  RH  094%=      5-min Rain = 0
KSM2 071847Z 01004KT 00/M01 A3046 RMK A01 T00031005  RH  095%=      5-min Rain = 0
KSM2 071848Z 01004KT 00/M00 A3046 RMK A01 T00031004  RH  095%=      5-min Rain = 0
KSM2 071849Z 01005KT 00/M00 A3046 RMK A01 T00031004  RH  095%=      5-min Rain = 0
KSM2 071850Z 02004KT 00/M01 A3046 RMK A01 T00031005  RH  094%=      5-min Rain = 0
KSM2 071851Z 02004KT 00/M01 A3046 RMK A01 T00031005  RH  094%=      5-min Rain = 0
KSM2 071852Z 01004KT 00/M01 A3046 RMK A01 T00011007  RH  094%=      5-min Rain = 0
KSM2 071853Z 01004KT 00/M01 A3045 RMK A01 T00011007  RH  094%=      5-min Rain = 0
KSM2 071854Z 01005KT 00/M01 A3045 RMK A01 T00021006  RH  094%=      5-min Rain = 0
KSM2 071855Z 01004KT 00/M01 A3045 RMK A01 T00011007  RH  094%=      5-min Rain = 0
KSM2 071856Z 01004KT 00/M01 A3045 RMK A01 T00021006  RH  095%=      5-min Rain = 0
KSM2 071857Z 02003KT 00/M00 A3044 RMK A01 T00031004  RH  095%=      5-min Rain = 0
KSM2 071858Z 01004KT 00/M00 A3044 RMK A01 T00041002  RH  095%=      5-min Rain = 0
KSM2 071859Z 00005KT 00/M00 A3044 RMK A01 T00041003  RH  095%=      5-min Rain = 0
KSM2 071900Z 00005KT 00/M00 A3044 RMK A01 T00041004  RH  095%=      5-min Rain = 0
KSM2 071901Z 00005KT 00/M01 A3044 RMK A01 T00031005  RH  095%=      5-min Rain = 0
KSM2 071902Z 36005KT 00/M01 A3044 RMK A01 T00021005  RH  095%=      5-min Rain = 0
KSM2 071903Z 36006KT 00/M01 A3044 RMK A01 T00021005  RH  095%=      5-min Rain = 0
KSM2 071904Z 00005KT 00/M01 A3044 RMK A01 T00021005  RH  095%=      5-min Rain = 0
KSM2 071905Z 00005KT 00/M01 A3044 RMK A01 T00021005  RH  095%=      5-min Rain = 0
KSM2 071906Z 01005KT 00/M01 A3043 RMK A01 T00021005  RH  095%=      5-min Rain = 0
KSM2 071907Z 01005KT 00/M01 A3043 RMK A01 T00021005  RH  095%=      5-min Rain = 0
KSM2 071908Z 01006KT 00/M01 A3043 RMK A01 T00021005  RH  095%=      5-min Rain = 0
KSM2 071909Z 01006KT 00/M01 A3043 RMK A01 T00021006  RH  095%=      5-min Rain = 0
KSM2 071910Z 01005KT 00/M01 A3043 RMK A01 T00011007  RH  095%=      5-min Rain = 0
KSM2 071911Z 01006KT 00/M01 A3043 RMK A01 T00021006  RH  094%=      5-min Rain = 0
KSM2 071912Z 01005KT 00/M01 A3043 RMK A01 T00011008  RH  094%=      5-min Rain = 0
KSM2 071913Z 02005KT 00/01 A3043 RMK A01 T000000-8  RH  094%=      5-min Rain = 0
KSM2 071914Z 02005KT 00/M01 A3043 RMK A01 T00011008  RH  094%=      5-min Rain = 0
KSM2 071915Z 02005KT 00/M01 A3043 RMK A01 T00011007  RH  094%=      5-min Rain = 0
KSM2 071916Z 02005KT 00/M01 A3043 RMK A01 T00021006  RH  094%=      5-min Rain = 0
KSM2 071917Z 02005KT 00/M01 A3043 RMK A01 T00031005  RH  094%=      5-min Rain = 0
KSM2 071918Z 02005KT 00/M00 A3043 RMK A01 T00041004  RH  094%=      5-min Rain = 0
KSM2 071919Z 02005KT 00/M00 A3043 RMK A01 T00041004  RH  094%=      5-min Rain = 0
KSM2 071920Z 02005KT 00/M01 A3043 RMK A01 T00041005  RH  094%=      5-min Rain = 0
KSM2 071921Z 02004KT 00/M01 A3043 RMK A01 T00041005  RH  094%=      5-min Rain = 0
KSM2 071922Z 02004KT 00/M01 A3043 RMK A01 T00041005  RH  094%=      5-min Rain = 0
KSM2 071923Z 01005KT 01/M00 A3043 RMK A01 T00051004  RH  094%=      5-min Rain = 0
KSM2 071924Z 01004KT 00/M00 A3043 RMK A01 T00041004  RH  094%=      5-min Rain = 0
KSM2 071925Z 01005KT 00/M00 A3042 RMK A01 T00041004  RH  094%=      5-min Rain = 0
KSM2 071926Z 01004KT 00/M01 A3042 RMK A01 T00031006  RH  094%=      5-min Rain = 0
KSM2 071927Z 00005KT 00/M01 A3042 RMK A01 T00031005  RH  094%=      5-min Rain = 0
KSM2 071928Z 01005KT 00/M01 A3042 RMK A01 T00031005  RH  094%=      5-min Rain = 0
KSM2 071929Z 02006KT 00/M01 A3042 RMK A01 T00021006  RH  094%=      5-min Rain = 0
KSM2 071930Z 01005KT 00/M01 A3042 RMK A01 T00021006  RH  094%=      5-min Rain = 0
KSM2 071931Z 01005KT 00/M01 A3041 RMK A01 T00011007  RH  094%=      5-min Rain = 0
KSM2 071932Z 01005KT 00/M01 A3041 RMK A01 T00011007  RH  094%=      5-min Rain = 0
KSM2 071933Z 01005KT 00/M01 A3041 RMK A01 T00021007  RH  094%=      5-min Rain = 0
KSM2 071934Z 02004KT 00/M01 A3041 RMK A01 T00021007  RH  094%=      5-min Rain = 0
KSM2 071935Z 02004KT 00/M01 A3041 RMK A01 T00031006  RH  094%=      5-min Rain = 0
KSM2 071936Z 02005KT 00/M01 A3041 RMK A01 T00031005  RH  094%=      5-min Rain = 0
KSM2 071937Z 03005KT 00/M01 A3041 RMK A01 T00031005  RH  094%=      5-min Rain = 0
KSM2 071938Z 01005KT 00/M01 A3041 RMK A01 T00031006  RH  094%=      5-min Rain = 0
KSM2 071939Z 01005KT 00/M01 A3041 RMK A01 T00031006  RH  094%=      5-min Rain = 0
KSM2 071940Z 01005KT 00/M01 A3041 RMK A01 T00031007  RH  094%=      5-min Rain = 0
KSM2 071941Z 02004KT 00/M01 A3041 RMK A01 T00021008  RH  093%=      5-min Rain = 0
KSM2 071942Z 02004KT 00/M01 A3041 RMK A01 T00021008  RH  094%=      5-min Rain = 0
KSM2 071943Z 01005KT 00/M01 A3041 RMK A01 T00021007  RH  094%=      5-min Rain = 0
KSM2 071944Z 01005KT 00/M01 A3041 RMK A01 T00031006  RH  094%=      5-min Rain = 0
KSM2 071945Z 01005KT 00/M01 A3041 RMK A01 T00021007  RH  094%=      5-min Rain = 0
KSM2 071946Z 01005KT 00/M01 A3041 RMK A01 T00011008  RH  094%=      5-min Rain = 0
KSM2 071947Z 02005KT 00/M01 A3041 RMK A01 T00011008  RH  094%=      5-min Rain = 0
KSM2 071948Z 02006KT 00/M01 A3041 RMK A01 T00011008  RH  094%=      5-min Rain = 0
KSM2 071949Z 01005KT 00/M01 A3041 RMK A01 T00011008  RH  094%=      5-min Rain = 0
KSM2 071950Z 01004KT 00/M01 A3041 RMK A01 T00011008  RH  094%=      5-min Rain = 0
KSM2 071951Z 01005KT 00/M01 A3041 RMK A01 T00011008  RH  094%=      5-min Rain = 0
KSM2 071952Z 02005KT 00/01 A3041 RMK A01 T000000-9  RH  093%=      5-min Rain = 0
KSM2 071953Z 02006KT 00/M01 A3041 RMK A01 T00011007  RH  094%=      5-min Rain = 0
KSM2 071954Z 02006KT 00/M01 A3041 RMK A01 T00011008  RH  093%=      5-min Rain = 0
KSM2 071955Z 02005KT 00/M01 A3041 RMK A01 T00011009  RH  093%=      5-min Rain = 0
KSM2 071956Z 02005KT 00/M01 A3041 RMK A01 T00011008  RH  094%=      5-min Rain = 0
KSM2 071957Z 02005KT 00/M01 A3041 RMK A01 T00021008  RH  094%=      5-min Rain = 0
KSM2 071958Z 02006KT 00/M01 A3041 RMK A01 T00021008  RH  093%=      5-min Rain = 0
KSM2 071959Z 01005KT 00/M01 A3042 RMK A01 T00021008  RH  093%=      5-min Rain = 0
KSM2 072000Z 01005KT 00/M01 A3042 RMK A01 T00021008  RH  093%=      5-min Rain = 0
KSM2 072001Z 01005KT 00/M01 A3042 RMK A01 T00011009  RH  093%=      5-min Rain = 0
KSM2 072002Z 02005KT 00/M01 A3042 RMK A01 T00011008  RH  093%=      5-min Rain = 0
KSM2 072003Z 02005KT 00/M01 A3041 RMK A01 T00021007  RH  093%=      5-min Rain = 0
KSM2 072004Z 02005KT 00/M01 A3041 RMK A01 T00021007  RH  093%=      5-min Rain = 0
KSM2 072005Z 02005KT 00/M01 A3041 RMK A01 T00031007  RH  094%=      5-min Rain = 0
KSM2 072006Z 02005KT 00/M01 A3041 RMK A01 T00031006  RH  094%=      5-min Rain = 0
KSM2 072007Z 01005KT 00/M01 A3041 RMK A01 T00031007  RH  093%=      5-min Rain = 0
KSM2 072008Z 01004KT 00/M01 A3041 RMK A01 T00031006  RH  094%=      5-min Rain = 0
KSM2 072009Z 01005KT 00/M01 A3041 RMK A01 T00031006  RH  094%=      5-min Rain = 0
KSM2 072010Z 01005KT 00/M01 A3041 RMK A01 T00021007  RH  094%=      5-min Rain = 0
KSM2 072011Z 36006KT 00/M01 A3041 RMK A01 T00021007  RH  094%=      5-min Rain = 0
KSM2 072012Z 00005KT 00/M01 A3041 RMK A01 T00021007  RH  094%=      5-min Rain = 0
KSM2 072013Z 01005KT 00/M01 A3041 RMK A01 T00011008  RH  094%=      5-min Rain = 0
KSM2 072014Z 36005KT 00/M01 A3041 RMK A01 T00011008  RH  094%=      5-min Rain = 0
KSM2 072015Z 00005KT 00/01 A3042 RMK A01 T000000-8  RH  094%=      5-min Rain = 0
KSM2 072016Z 00004KT 00/01 A3042 RMK A01 T000000-8  RH  094%=      5-min Rain = 0
KSM2 072017Z 00005KT 00/01 A3041 RMK A01 T000000-7  RH  095%=      5-min Rain = 0
KSM2 072018Z 00006KT 00/01 A3041 RMK A01 T000000-8  RH  094%=      5-min Rain = 0
KSM2 072019Z 01005KT 00/01 A3041 RMK A01 T00-000-9  RH  094%=      5-min Rain = 0
KSM2 072020Z 00005KT M00/M01 A3041 RMK A01 T10011009  RH  094%=      5-min Rain = 0
KSM2 072021Z 01005KT M00/M01 A3041 RMK A01 T10011009  RH  094%=      5-min Rain = 0
KSM2 072022Z 01005KT M00/M01 A3042 RMK A01 T10011009  RH  094%=      5-min Rain = 0
KSM2 072023Z 01005KT M00/M01 A3042 RMK A01 T10011009  RH  094%=      5-min Rain = 0
KSM2 072024Z 01005KT M00/M01 A3042 RMK A01 T10011009  RH  094%=      5-min Rain = 0
KSM2 072025Z 01004KT 00/01 A3043 RMK A01 T00-000-9  RH  094%=      5-min Rain = 0
KSM2 072026Z 01005KT 00/01 A3043 RMK A01 T00-000-9  RH  094%=      5-min Rain = 0
KSM2 072027Z 01005KT 00/01 A3043 RMK A01 T00-000-9  RH  094%=      5-min Rain = 0
KSM2 072028Z 01004KT 00/01 A3042 RMK A01 T00-000-9  RH  094%=      5-min Rain = 0
KSM2 072029Z 00004KT 00/01 A3042 RMK A01 T000000-9  RH  094%=      5-min Rain = 0
KSM2 072030Z 00005KT 00/M01 A3042 RMK A01 T00011008  RH  094%=      5-min Rain = 0
KSM2 072031Z 01004KT 00/M01 A3042 RMK A01 T00011008  RH  094%=      5-min Rain = 0
KSM2 072032Z 01004KT 00/M01 A3042 RMK A01 T00011008  RH  094%=      5-min Rain = 0
KSM2 072033Z 36004KT 00/M01 A3042 RMK A01 T00011008  RH  094%=      5-min Rain = 0
KSM2 072034Z 35005KT 00/M01 A3042 RMK A01 T00011006  RH  095%=      5-min Rain = 0
KSM2 072035Z 36005KT 00/M01 A3042 RMK A01 T00011006  RH  094%=      5-min Rain = 0
KSM2 072036Z 36005KT 00/M01 A3042 RMK A01 T00011007  RH  094%=      5-min Rain = 0
KSM2 072037Z 36005KT 00/01 A3042 RMK A01 T000000-8  RH  094%=      5-min Rain = 0
KSM2 072038Z 00005KT 00/M01 A3042 RMK A01 T00011007  RH  095%=      5-min Rain = 0
KSM2 072039Z 36005KT 00/M01 A3042 RMK A01 T00011006  RH  095%=      5-min Rain = 0
KSM2 072040Z 36005KT 00/M01 A3042 RMK A01 T00011007  RH  094%=      5-min Rain = 0
KSM2 072041Z 00005KT 00/01 A3041 RMK A01 T000000-8  RH  094%=      5-min Rain = 0
KSM2 072042Z 00005KT 00/01 A3041 RMK A01 T00-000-9  RH  094%=      5-min Rain = 0
KSM2 072043Z 00005KT M00/M01 A3041 RMK A01 T10011009  RH  094%=      5-min Rain = 0
KSM2 072044Z 00005KT M00/M01 A3041 RMK A01 T10011009  RH  094%=      5-min Rain = 0
KSM2 072045Z 36005KT M00/M01 A3041 RMK A01 T10011009  RH  095%=      5-min Rain = 0
KSM2 072046Z 36005KT M00/M01 A3041 RMK A01 T10011009  RH  095%=      5-min Rain = 0
KSM2 072047Z 00005KT M00/M01 A3041 RMK A01 T10011009  RH  095%=      5-min Rain = 0
KSM2 072048Z 00005KT M00/M01 A3041 RMK A01 T10011009  RH  095%=      5-min Rain = 0
KSM2 072049Z 00005KT M00/M01 A3041 RMK A01 T10011009  RH  095%=      5-min Rain = 0
KSM2 072050Z 01004KT M00/M01 A3042 RMK A01 T10011009  RH  095%=      5-min Rain = 0
KSM2 072051Z 00004KT 00/01 A3042 RMK A01 T00-000-8  RH  095%=      5-min Rain = 0
KSM2 072052Z 00005KT 00/01 A3042 RMK A01 T000000-7  RH  095%=      5-min Rain = 0
KSM2 072053Z 00004KT 00/01 A3042 RMK A01 T000000-7  RH  095%=      5-min Rain = 0
KSM2 072054Z 00004KT 00/01 A3042 RMK A01 T000000-7  RH  095%=      5-min Rain = 0
KSM2 072055Z 00004KT 00/01 A3042 RMK A01 T000000-7  RH  095%=      5-min Rain = 0
KSM2 072056Z 01005KT 00/01 A3042 RMK A01 T000000-7  RH  095%=      5-min Rain = 0
KSM2 072057Z 00004KT 00/01 A3042 RMK A01 T000000-7  RH  095%=      5-min Rain = 0
KSM2 072058Z 00004KT 00/01 A3042 RMK A01 T000000-7  RH  095%=      5-min Rain = 0
KSM2 072059Z 00004KT 00/M01 A3042 RMK A01 T00011006  RH  095%=      5-min Rain = 0
KSM2 072100Z 01003KT 00/M01 A3043 RMK A01 T00011007  RH  095%=      5-min Rain = 0
KSM2 072101Z 00003KT 00/M01 A3043 RMK A01 T00021005  RH  095%=      5-min Rain = 0
KSM2 072102Z 00003KT 00/M01 A3043 RMK A01 T00021005  RH  095%=      5-min Rain = 0
KSM2 072103Z 00004KT 00/M01 A3043 RMK A01 T00031005  RH  095%=      5-min Rain = 0
KSM2 072104Z 01003KT 00/M01 A3043 RMK A01 T00021005  RH  095%=      5-min Rain = 0
KSM2 072105Z 36004KT 00/M01 A3042 RMK A01 T00021006  RH  095%=      5-min Rain = 0
KSM2 072106Z 00005KT 00/M01 A3042 RMK A01 T00011007  RH  095%=      5-min Rain = 0
KSM2 072107Z 00005KT 00/M01 A3042 RMK A01 T00011007  RH  094%=      5-min Rain = 0
KSM2 072108Z 00004KT 00/M01 A3042 RMK A01 T00011007  RH  094%=      5-min Rain = 0
KSM2 072109Z 36004KT 00/M01 A3042 RMK A01 T00011007  RH  095%=      5-min Rain = 0
KSM2 072110Z 01005KT 00/M01 A3042 RMK A01 T00011007  RH  095%=      5-min Rain = 0
KSM2 072111Z 01005KT 00/01 A3042 RMK A01 T000000-8  RH  094%=      5-min Rain = 0
KSM2 072112Z 00004KT 00/01 A3042 RMK A01 T000000-8  RH  094%=      5-min Rain = 0
KSM2 072113Z 00004KT 00/01 A3042 RMK A01 T000000-8  RH  094%=      5-min Rain = 0
KSM2 072114Z 00005KT 00/01 A3042 RMK A01 T00-000-8  RH  094%=      5-min Rain = 0
KSM2 072115Z 00005KT M00/M01 A3042 RMK A01 T10011010  RH  094%=      5-min Rain = 0
KSM2 072116Z 00005KT M00/M01 A3042 RMK A01 T10021010  RH  094%=      5-min Rain = 0
KSM2 072117Z 00005KT M00/M01 A3042 RMK A01 T10011010  RH  094%=      5-min Rain = 0
KSM2 072118Z 01004KT M00/M01 A3042 RMK A01 T10011009  RH  094%=      5-min Rain = 0
KSM2 072119Z 01004KT M00/M01 A3042 RMK A01 T10021010  RH  094%=      5-min Rain = 0
KSM2 072120Z 00004KT M00/M01 A3042 RMK A01 T10011009  RH  095%=      5-min Rain = 0
KSM2 072121Z 01004KT 00/01 A3043 RMK A01 T00-000-8  RH  095%=      5-min Rain = 0
KSM2 072122Z 01004KT 00/01 A3043 RMK A01 T00-000-7  RH  095%=      5-min Rain = 0
KSM2 072123Z 02003KT 00/01 A3043 RMK A01 T00-000-8  RH  095%=      5-min Rain = 0
KSM2 072124Z 01003KT 00/01 A3043 RMK A01 T000000-7  RH  095%=      5-min Rain = 0
KSM2 072125Z 00003KT 00/01 A3043 RMK A01 T000000-7  RH  095%=      5-min Rain = 0
KSM2 072126Z 01004KT 00/M01 A3043 RMK A01 T00011007  RH  095%=      5-min Rain = 0
KSM2 072127Z 00004KT 00/01 A3043 RMK A01 T000000-8  RH  095%=      5-min Rain = 0
KSM2 072128Z 36004KT 00/01 A3043 RMK A01 T00-000-8  RH  095%=      5-min Rain = 0
KSM2 072129Z 01003KT 00/01 A3043 RMK A01 T000000-7  RH  095%=      5-min Rain = 0
KSM2 072130Z 00003KT 00/M01 A3043 RMK A01 T00011007  RH  095%=      5-min Rain = 0
KSM2 072131Z 01004KT 00/M01 A3042 RMK A01 T00011007  RH  095%=      5-min Rain = 0
KSM2 072132Z 00005KT 00/M01 A3042 RMK A01 T00011007  RH  095%=      5-min Rain = 0
KSM2 072133Z 01005KT 00/01 A3042 RMK A01 T000000-8  RH  094%=      5-min Rain = 0
KSM2 072134Z 00004KT 00/01 A3042 RMK A01 T00-000-8  RH  094%=      5-min Rain = 0
KSM2 072135Z 00004KT 00/01 A3042 RMK A01 T000000-7  RH  095%=      5-min Rain = 0
KSM2 072136Z 00005KT 00/M01 A3042 RMK A01 T00011007  RH  095%=      5-min Rain = 0
KSM2 072137Z 35005KT 00/01 A3042 RMK A01 T000000-8  RH  094%=      5-min Rain = 0
KSM2 072138Z 36004KT 00/01 A3042 RMK A01 T000000-7  RH  095%=      5-min Rain = 0
KSM2 072139Z 00004KT 00/M01 A3043 RMK A01 T00011006  RH  095%=      5-min Rain = 0
KSM2 072140Z 00005KT 00/M01 A3043 RMK A01 T00021006  RH  095%=      5-min Rain = 0
KSM2 072141Z 00005KT 00/M01 A3043 RMK A01 T00011007  RH  095%=      5-min Rain = 0
KSM2 072142Z 00004KT 00/M01 A3043 RMK A01 T00011007  RH  094%=      5-min Rain = 0
KSM2 072143Z 36005KT 00/M01 A3042 RMK A01 T00011007  RH  095%=      5-min Rain = 0
KSM2 072144Z 00004KT 00/M01 A3042 RMK A01 T00011007  RH  095%=      5-min Rain = 0
KSM2 072145Z 01004KT 00/M01 A3042 RMK A01 T00011007  RH  095%=      5-min Rain = 0
KSM2 072146Z 36005KT 00/M01 A3042 RMK A01 T00011007  RH  095%=      5-min Rain = 0
KSM2 072147Z 36005KT 00/M01 A3042 RMK A01 T00011006  RH  095%=      5-min Rain = 0
KSM2 072148Z 35005KT 00/M01 A3042 RMK A01 T00011007  RH  095%=      5-min Rain = 0
KSM2 072149Z 35005KT 00/01 A3043 RMK A01 T000000-8  RH  095%=      5-min Rain = 0
KSM2 072150Z 35005KT 00/M01 A3043 RMK A01 T00011007  RH  095%=      5-min Rain = 0
KSM2 072151Z 35005KT 00/01 A3043 RMK A01 T000000-7  RH  095%=      5-min Rain = 0
KSM2 072152Z 35005KT 00/01 A3043 RMK A01 T000000-7  RH  095%=      5-min Rain = 0
KSM2 072153Z 35005KT 00/01 A3043 RMK A01 T000000-7  RH  095%=      5-min Rain = 0
KSM2 072154Z 35004KT 00/01 A3043 RMK A01 T000000-8  RH  095%=      5-min Rain = 0
KSM2 072155Z 35005KT 00/01 A3043 RMK A01 T000000-7  RH  095%=      5-min Rain = 0
KSM2 072156Z 00005KT 00/01 A3043 RMK A01 T000000-7  RH  095%=      5-min Rain = 0
KSM2 072157Z 36005KT 00/01 A3043 RMK A01 T000000-7  RH  095%=      5-min Rain = 0
KSM2 072158Z 35005KT 00/01 A3043 RMK A01 T00-000-8  RH  095%=      5-min Rain = 0
KSM2 072159Z 36005KT 00/01 A3043 RMK A01 T00-000-8  RH  095%=      5-min Rain = 0
KSM2 072200Z 36005KT 00/01 A3042 RMK A01 T00-000-8  RH  095%=      5-min Rain = 0
KSM2 072201Z 36005KT M00/M01 A3042 RMK A01 T10011009  RH  094%=      5-min Rain = 0
KSM2 072202Z 35005KT M00/M01 A3042 RMK A01 T10011009  RH  094%=      5-min Rain = 0
KSM2 072203Z 00005KT M00/M01 A3042 RMK A01 T10011009  RH  095%=      5-min Rain = 0
KSM2 072204Z 36004KT M00/M01 A3042 RMK A01 T10011009  RH  094%=      5-min Rain = 0
KSM2 072205Z 36004KT M00/M01 A3042 RMK A01 T10011009  RH  095%=      5-min Rain = 0
KSM2 072206Z 36005KT M00/M01 A3042 RMK A01 T10011008  RH  095%=      5-min Rain = 0
KSM2 072207Z 36005KT M00/M01 A3042 RMK A01 T10011008  RH  095%=      5-min Rain = 0
KSM2 072208Z 00006KT 00/01 A3042 RMK A01 T00-000-8  RH  095%=      5-min Rain = 0
KSM2 072209Z 00005KT 00/01 A3042 RMK A01 T00-000-8  RH  095%=      5-min Rain = 0
KSM2 072210Z 36005KT M00/M01 A3042 RMK A01 T10011009  RH  094%=      5-min Rain = 0
KSM2 072211Z 36005KT M00/M01 A3042 RMK A01 T10011009  RH  094%=      5-min Rain = 0
KSM2 072212Z 00005KT M00/M01 A3042 RMK A01 T10011009  RH  094%=      5-min Rain = 0
KSM2 072213Z 00005KT M00/M01 A3042 RMK A01 T10011009  RH  094%=      5-min Rain = 0
KSM2 072214Z 00004KT M00/M01 A3042 RMK A01 T10011009  RH  094%=      5-min Rain = 0
KSM2 072215Z 01005KT M00/M01 A3042 RMK A01 T10011009  RH  094%=      5-min Rain = 0
KSM2 072216Z 01005KT M00/M01 A3042 RMK A01 T10011009  RH  094%=      5-min Rain = 0
KSM2 072217Z 00005KT M00/M01 A3042 RMK A01 T10011009  RH  094%=      5-min Rain = 0
KSM2 072218Z 00004KT M00/M01 A3042 RMK A01 T10011009  RH  094%=      5-min Rain = 0
KSM2 072219Z 00004KT 00/01 A3042 RMK A01 T00-000-8  RH  094%=      5-min Rain = 0
KSM2 072220Z 01004KT 00/01 A3042 RMK A01 T00-000-8  RH  094%=      5-min Rain = 0
KSM2 072221Z 01004KT 00/01 A3042 RMK A01 T00-000-8  RH  094%=      5-min Rain = 0
KSM2 072222Z 00004KT 00/01 A3043 RMK A01 T00-000-8  RH  094%=      5-min Rain = 0
KSM2 072223Z 35004KT 00/M01 A3043 RMK A01 T00011007  RH  095%=      5-min Rain = 0
KSM2 072224Z 36004KT 00/M01 A3043 RMK A01 T00011006  RH  095%=      5-min Rain = 0
KSM2 072225Z 35005KT 00/M01 A3043 RMK A01 T00021006  RH  095%=      5-min Rain = 0
KSM2 072226Z 01005KT 00/M01 A3043 RMK A01 T00021006  RH  095%=      5-min Rain = 0
KSM2 072227Z 00004KT 00/M01 A3043 RMK A01 T00011007  RH  094%=      5-min Rain = 0
KSM2 072228Z 35004KT 00/01 A3043 RMK A01 T00-000-8  RH  094%=      5-min Rain = 0
KSM2 072229Z 35004KT 00/M01 A3043 RMK A01 T00011007  RH  095%=      5-min Rain = 0
KSM2 072230Z 35004KT 00/01 A3043 RMK A01 T000000-7  RH  095%=      5-min Rain = 0
KSM2 072231Z 36004KT 00/01 A3043 RMK A01 T000000-7  RH  095%=      5-min Rain = 0
KSM2 072232Z 36004KT 00/01 A3043 RMK A01 T000000-7  RH  095%=      5-min Rain = 0
KSM2 072233Z 35004KT 00/01 A3043 RMK A01 T000000-7  RH  095%=      5-min Rain = 0
KSM2 072234Z 00004KT 00/M01 A3043 RMK A01 T00011006  RH  095%=      5-min Rain = 0
KSM2 072235Z 36004KT 00/M01 A3043 RMK A01 T00021005  RH  095%=      5-min Rain = 0
KSM2 072236Z 36004KT 00/M01 A3043 RMK A01 T00021005  RH  095%=      5-min Rain = 0
KSM2 072237Z 36005KT 00/M01 A3042 RMK A01 T00011006  RH  095%=      5-min Rain = 0
KSM2 072238Z 00005KT 00/01 A3042 RMK A01 T000000-7  RH  095%=      5-min Rain = 0
KSM2 072239Z 00004KT 00/01 A3042 RMK A01 T00-000-8  RH  095%=      5-min Rain = 0
KSM2 072240Z 00004KT 00/01 A3042 RMK A01 T00-000-7  RH  095%=      5-min Rain = 0
KSM2 072241Z 01004KT 00/01 A3042 RMK A01 T000000-7  RH  095%=      5-min Rain = 0
KSM2 072242Z 01005KT 00/01 A3042 RMK A01 T000000-7  RH  095%=      5-min Rain = 0
KSM2 072243Z 01004KT 00/01 A3042 RMK A01 T000000-7  RH  095%=      5-min Rain = 0
KSM2 072244Z 00004KT 00/M01 A3042 RMK A01 T00011006  RH  095%=      5-min Rain = 0
KSM2 072245Z 01005KT 00/M01 A3042 RMK A01 T00011006  RH  095%=      5-min Rain = 0
KSM2 072246Z 01004KT 00/M01 A3042 RMK A01 T00011007  RH  095%=      5-min Rain = 0
KSM2 072247Z 01004KT 00/M01 A3042 RMK A01 T00011007  RH  095%=      5-min Rain = 0
KSM2 072248Z 01004KT 00/M01 A3042 RMK A01 T00011007  RH  094%=      5-min Rain = 0
KSM2 072249Z 01004KT 00/M01 A3043 RMK A01 T00011008  RH  094%=      5-min Rain = 0
KSM2 072250Z 36004KT 00/M01 A3043 RMK A01 T00011008  RH  094%=      5-min Rain = 0
KSM2 072251Z 36004KT 00/M01 A3043 RMK A01 T00021007  RH  094%=      5-min Rain = 0
KSM2 072252Z 35004KT 00/M01 A3043 RMK A01 T00021006  RH  094%=      5-min Rain = 0
KSM2 072253Z 35004KT 00/M01 A3043 RMK A01 T00021006  RH  094%=      5-min Rain = 0
KSM2 072254Z 36004KT 00/M01 A3043 RMK A01 T00021006  RH  094%=      5-min Rain = 0
KSM2 072255Z 00004KT 00/M01 A3043 RMK A01 T00021006  RH  094%=      5-min Rain = 0
KSM2 072256Z 35004KT 00/M01 A3043 RMK A01 T00011007  RH  094%=      5-min Rain = 0
KSM2 072257Z 36005KT 00/M01 A3043 RMK A01 T00011007  RH  094%=      5-min Rain = 0
KSM2 072258Z 00005KT 00/M01 A3043 RMK A01 T00011007  RH  094%=      5-min Rain = 0
KSM2 072259Z 00005KT 00/M01 A3043 RMK A01 T00011007  RH  094%=      5-min Rain = 0
KSM2 072300Z 00005KT 00/M01 A3043 RMK A01 T00011007  RH  094%=      5-min Rain = 0
KSM2 072301Z 00004KT 00/M01 A3043 RMK A01 T00011008  RH  093%=      5-min Rain = 0
KSM2 072302Z 36004KT 00/M01 A3043 RMK A01 T00021008  RH  094%=      5-min Rain = 0
KSM2 072303Z 35004KT 00/M01 A3043 RMK A01 T00021007  RH  094%=      5-min Rain = 0
KSM2 072304Z 36004KT 00/M01 A3043 RMK A01 T00031006  RH  094%=      5-min Rain = 0
KSM2 072305Z 36005KT 00/M01 A3043 RMK A01 T00031005  RH  094%=      5-min Rain = 0
KSM2 072306Z 00004KT 00/M01 A3043 RMK A01 T00021007  RH  094%=      5-min Rain = 0
KSM2 072307Z 00004KT 00/M01 A3043 RMK A01 T00011007  RH  094%=      5-min Rain = 0
KSM2 072308Z 01004KT 00/M01 A3043 RMK A01 T00011007  RH  094%=      5-min Rain = 0
KSM2 072309Z 35003KT 00/M01 A3043 RMK A01 T00011007  RH  095%=      5-min Rain = 0
KSM2 072310Z 36004KT 00/M01 A3043 RMK A01 T00011006  RH  095%=      5-min Rain = 0
KSM2 072311Z 36004KT 00/M01 A3043 RMK A01 T00011006  RH  095%=      5-min Rain = 0
KSM2 072312Z 36004KT 00/M01 A3043 RMK A01 T00011006  RH  095%=      5-min Rain = 0
KSM2 072313Z 36004KT 00/M01 A3043 RMK A01 T00011006  RH  095%=      5-min Rain = 0
KSM2 072314Z 01004KT 00/01 A3044 RMK A01 T000000-7  RH  095%=      5-min Rain = 0
KSM2 072315Z 36004KT 00/01 A3044 RMK A01 T000000-7  RH  095%=      5-min Rain = 0
KSM2 072316Z 35004KT 00/01 A3044 RMK A01 T000000-6  RH  095%=      5-min Rain = 0
KSM2 072317Z 36004KT 00/M01 A3044 RMK A01 T00011006  RH  096%=      5-min Rain = 0
KSM2 072318Z 36005KT 00/M01 A3044 RMK A01 T00011005  RH  096%=      5-min Rain = 0
KSM2 072319Z 00004KT 00/M01 A3044 RMK A01 T00011006  RH  095%=      5-min Rain = 0
KSM2 072320Z 00005KT 00/01 A3044 RMK A01 T000000-6  RH  095%=      5-min Rain = 0
KSM2 072321Z 36004KT 00/01 A3044 RMK A01 T000000-6  RH  096%=      5-min Rain = 0
KSM2 072322Z 35004KT 00/01 A3044 RMK A01 T000000-6  RH  096%=      5-min Rain = 0
KSM2 072323Z 36004KT 00/01 A3044 RMK A01 T000000-6  RH  096%=      5-min Rain = 0
KSM2 072324Z 00004KT 00/01 A3044 RMK A01 T000000-6  RH  096%=      5-min Rain = 0
KSM2 072325Z 00004KT 00/01 A3044 RMK A01 T000000-6  RH  096%=      5-min Rain = 0
KSM2 072326Z 36003KT 00/01 A3044 RMK A01 T000000-5  RH  096%=      5-min Rain = 0
KSM2 072327Z 36003KT 00/M00 A3044 RMK A01 T00011004  RH  096%=      5-min Rain = 0
KSM2 072328Z 01003KT 00/M00 A3044 RMK A01 T00021004  RH  096%=      5-min Rain = 0
KSM2 072329Z 00004KT 00/M00 A3044 RMK A01 T00021004  RH  096%=      5-min Rain = 0
KSM2 072330Z 36003KT 00/M00 A3044 RMK A01 T00011004  RH  096%=      5-min Rain = 0
KSM2 072331Z 00004KT 00/M00 A3044 RMK A01 T00011004  RH  096%=      5-min Rain = 0
KSM2 072332Z 00004KT 00/01 A3044 RMK A01 T00-000-6  RH  096%=      5-min Rain = 0
KSM2 072333Z 00003KT 00/01 A3044 RMK A01 T000000-5  RH  096%=      5-min Rain = 0
KSM2 072334Z 35003KT 00/M01 A3044 RMK A01 T00011005  RH  096%=      5-min Rain = 0
KSM2 072335Z 35003KT 00/M00 A3044 RMK A01 T00011004  RH  096%=      5-min Rain = 0
KSM2 072336Z 35004KT 00/M00 A3044 RMK A01 T00011004  RH  096%=      5-min Rain = 0
KSM2 072337Z 35004KT 00/M00 A3044 RMK A01 T00011004  RH  096%=      5-min Rain = 0
KSM2 072338Z 00003KT 00/M00 A3044 RMK A01 T00011004  RH  096%=      5-min Rain = 0
KSM2 072339Z 00003KT 00/M00 A3044 RMK A01 T00011004  RH  096%=      5-min Rain = 0.01
KSM2 072340Z 00003KT 00/M00 A3044 RMK A01 T00011004  RH  096%=      5-min Rain = 0
KSM2 072341Z 36003KT 00/M00 A3044 RMK A01 T00011004  RH  096%=      5-min Rain = 0
KSM2 072342Z 36004KT 00/M00 A3044 RMK A01 T00011004  RH  096%=      5-min Rain = 0
KSM2 072343Z 35004KT 00/M00 A3045 RMK A01 T00011004  RH  096%=      5-min Rain = 0
KSM2 072344Z 35003KT 00/M00 A3045 RMK A01 T00011004  RH  096%=      5-min Rain = 0
KSM2 072345Z 35004KT 00/M00 A3045 RMK A01 T00021003  RH  097%=      5-min Rain = 0
KSM2 072346Z 35004KT 00/M00 A3044 RMK A01 T00021003  RH  096%=      5-min Rain = 0
KSM2 072347Z 35004KT 00/M00 A3044 RMK A01 T00021003  RH  096%=      5-min Rain = 0
KSM2 072348Z 35003KT 00/M00 A3044 RMK A01 T00021003  RH  096%=      5-min Rain = 0
KSM2 072349Z 35003KT 00/M00 A3044 RMK A01 T00011004  RH  096%=      5-min Rain = 0
KSM2 072350Z 36003KT 00/M00 A3044 RMK A01 T00021003  RH  096%=      5-min Rain = 0
KSM2 072351Z 00003KT 00/M00 A3044 RMK A01 T00021003  RH  096%=      5-min Rain = 0
KSM2 072352Z 36003KT 00/M00 A3044 RMK A01 T00011004  RH  096%=      5-min Rain = 0
KSM2 072353Z 36003KT 00/M00 A3044 RMK A01 T00011004  RH  096%=      5-min Rain = 0
KSM2 072354Z 36003KT 00/M00 A3044 RMK A01 T00011004  RH  097%=      5-min Rain = 0
KSM2 072355Z 00003KT 00/M00 A3044 RMK A01 T00021003  RH  097%=      5-min Rain = 0
KSM2 072356Z 36003KT 00/M00 A3044 RMK A01 T00011003  RH  097%=      5-min Rain = 0
KSM2 072357Z 36003KT 00/M00 A3044 RMK A01 T00011004  RH  097%=      5-min Rain = 0
KSM2 072358Z 36003KT 00/M00 A3044 RMK A01 T00011003  RH  097%=      5-min Rain = 0
KSM2 072359Z 36004KT 00/M00 A3044 RMK A01 T00011003  RH  097%=      5-min Rain = 0
KSM2 080000Z 36004KT 00/M00 A3044 RMK A01 T00011004  RH  097%=      5-min Rain = 0
KSM2 080001Z 36004KT 00/01 A3044 RMK A01 T000000-5  RH  096%=      5-min Rain = 0
KSM2 080002Z 00004KT 00/01 A3044 RMK A01 T00-000-5  RH  096%=      5-min Rain = 0
KSM2 080003Z 35004KT 00/01 A3044 RMK A01 T00-000-5  RH  097%=      5-min Rain = 0
KSM2 080004Z 36004KT 00/01 A3044 RMK A01 T000000-5  RH  097%=      5-min Rain = 0
KSM2 080005Z 36004KT 00/01 A3044 RMK A01 T00-000-5  RH  096%=      5-min Rain = 0
KSM2 080006Z 00003KT 00/01 A3044 RMK A01 T00-000-6  RH  096%=      5-min Rain = 0
KSM2 080007Z 36004KT M00/M01 A3044 RMK A01 T10011006  RH  096%=      5-min Rain = 0
KSM2 080008Z 35004KT 00/01 A3044 RMK A01 T00-000-5  RH  097%=      5-min Rain = 0
KSM2 080009Z 00004KT 00/00 A3044 RMK A01 T000000-4  RH  097%=      5-min Rain = 0
KSM2 080010Z 36004KT 00/00 A3044 RMK A01 T000000-4  RH  097%=      5-min Rain = 0
KSM2 080011Z 36004KT 00/00 A3044 RMK A01 T000000-4  RH  097%=      5-min Rain = 0
KSM2 080012Z 00004KT 00/00 A3044 RMK A01 T000000-4  RH  097%=      5-min Rain = 0
KSM2 080013Z 00004KT 00/00 A3044 RMK A01 T000000-4  RH  097%=      5-min Rain = 0
KSM2 080014Z 00004KT 00/00 A3044 RMK A01 T000000-4  RH  097%=      5-min Rain = 0
KSM2 080015Z 00004KT 00/01 A3044 RMK A01 T00-000-5  RH  097%=      5-min Rain = 0
KSM2 080016Z 01004KT 00/01 A3044 RMK A01 T000000-5  RH  097%=      5-min Rain = 0
KSM2 080017Z 01004KT 00/01 A3044 RMK A01 T00-000-5  RH  097%=      5-min Rain = 0
KSM2 080018Z 01003KT 00/01 A3044 RMK A01 T00-000-5  RH  097%=      5-min Rain = 0
KSM2 080019Z 01003KT 00/01 A3044 RMK A01 T00-000-5  RH  097%=      5-min Rain = 0
KSM2 080020Z 01003KT 00/00 A3044 RMK A01 T000000-4  RH  097%=      5-min Rain = 0
KSM2 080021Z 00004KT 00/00 A3044 RMK A01 T000000-4  RH  097%=      5-min Rain = 0
KSM2 080022Z 00003KT 00/00 A3044 RMK A01 T000000-4  RH  097%=      5-min Rain = 0
KSM2 080023Z 00004KT 00/00 A3044 RMK A01 T000000-4  RH  097%=      5-min Rain = 0
KSM2 080024Z 00003KT 00/00 A3044 RMK A01 T000000-4  RH  097%=      5-min Rain = 0
KSM2 080025Z 01004KT 00/M00 A3044 RMK A01 T00011004  RH  097%=      5-min Rain = 0
KSM2 080026Z 01004KT 00/M00 A3043 RMK A01 T00011004  RH  097%=      5-min Rain = 0
KSM2 080027Z 00004KT 00/M00 A3043 RMK A01 T00011004  RH  097%=      5-min Rain = 0
KSM2 080028Z 01004KT 00/00 A3043 RMK A01 T000000-4  RH  097%=      5-min Rain = 0
KSM2 080029Z 00005KT 00/00 A3043 RMK A01 T000000-4  RH  097%=      5-min Rain = 0
KSM2 080030Z 01004KT 00/00 A3043 RMK A01 T000000-4  RH  097%=      5-min Rain = 0
KSM2 080031Z 01004KT 00/00 A3043 RMK A01 T000000-4  RH  097%=      5-min Rain = 0
KSM2 080032Z 01004KT 00/00 A3044 RMK A01 T000000-4  RH  097%=      5-min Rain = 0
KSM2 080033Z 01004KT 00/00 A3043 RMK A01 T000000-4  RH  097%=      5-min Rain = 0
KSM2 080034Z 01004KT 00/00 A3044 RMK A01 T000000-4  RH  097%=      5-min Rain = 0
KSM2 080035Z 01004KT 00/00 A3044 RMK A01 T000000-4  RH  097%=      5-min Rain = 0
KSM2 080036Z 01004KT 00/M00 A3044 RMK A01 T00011004  RH  097%=      5-min Rain = 0
KSM2 080037Z 01003KT 00/00 A3044 RMK A01 T000000-4  RH  097%=      5-min Rain = 0
KSM2 080038Z 01003KT 00/00 A3044 RMK A01 T000000-4  RH  097%=      5-min Rain = 0
KSM2 080039Z 01003KT 00/M00 A3044 RMK A01 T00011004  RH  097%=      5-min Rain = 0
KSM2 080040Z 01003KT 00/M00 A3044 RMK A01 T00011004  RH  097%=      5-min Rain = 0
KSM2 080041Z 01003KT 00/M00 A3044 RMK A01 T00011003  RH  097%=      5-min Rain = 0
KSM2 080042Z 01003KT 00/M00 A3044 RMK A01 T00021003  RH  097%=      5-min Rain = 0
KSM2 080043Z 00003KT 00/M00 A3044 RMK A01 T00021003  RH  097%=      5-min Rain = 0
KSM2 080044Z 01003KT 00/M00 A3044 RMK A01 T00021003  RH  097%=      5-min Rain = 0
KSM2 080045Z 01003KT 00/M00 A3044 RMK A01 T00021002  RH  097%=      5-min Rain = 0
KSM2 080046Z 02003KT 00/M00 A3043 RMK A01 T00021003  RH  097%=      5-min Rain = 0
KSM2 080047Z 02004KT 00/M00 A3043 RMK A01 T00021003  RH  097%=      5-min Rain = 0
KSM2 080048Z 01004KT 00/M00 A3043 RMK A01 T00021003  RH  097%=      5-min Rain = 0
KSM2 080049Z 02004KT 00/M00 A3043 RMK A01 T00021003  RH  097%=      5-min Rain = 0
KSM2 080050Z 02003KT 00/M00 A3043 RMK A01 T00021003  RH  097%=      5-min Rain = 0
KSM2 080051Z 02003KT 00/M00 A3043 RMK A01 T00021003  RH  097%=      5-min Rain = 0
KSM2 080052Z 01003KT 00/M00 A3044 RMK A01 T00021003  RH  097%=      5-min Rain = 0
KSM2 080053Z 02002KT 00/M00 A3044 RMK A01 T00021002  RH  097%=      5-min Rain = 0
KSM2 080054Z 02003KT 00/M00 A3044 RMK A01 T00021003  RH  097%=      5-min Rain = 0
KSM2 080055Z 01003KT 00/M00 A3044 RMK A01 T00021003  RH  097%=      5-min Rain = 0
KSM2 080056Z 01003KT 00/M00 A3044 RMK A01 T00021003  RH  097%=      5-min Rain = 0
KSM2 080057Z 01003KT 00/M00 A3044 RMK A01 T00021003  RH  097%=      5-min Rain = 0
KSM2 080058Z 02003KT 00/M00 A3044 RMK A01 T00021003  RH  097%=      5-min Rain = 0
KSM2 080059Z 02003KT 00/M00 A3044 RMK A01 T00021002  RH  097%=      5-min Rain = 0
KSM2 080100Z 02003KT 00/M00 A3044 RMK A01 T00021002  RH  097%=      5-min Rain = 0
KSM2 080101Z 03003KT 00/M00 A3044 RMK A01 T00031002  RH  097%=      5-min Rain = 0
KSM2 080102Z 02003KT 00/M00 A3044 RMK A01 T00031002  RH  097%=      5-min Rain = 0
KSM2 080103Z 02003KT 00/M00 A3044 RMK A01 T00031002  RH  097%=      5-min Rain = 0
KSM2 080104Z 02003KT 00/M00 A3044 RMK A01 T00031002  RH  097%=      5-min Rain = 0
KSM2 080105Z 01003KT 00/M00 A3044 RMK A01 T00031002  RH  097%=      5-min Rain = 0
KSM2 080106Z 01003KT 00/M00 A3044 RMK A01 T00031002  RH  097%=      5-min Rain = 0
KSM2 080107Z 02003KT 00/M00 A3044 RMK A01 T00031002  RH  097%=      5-min Rain = 0
KSM2 080108Z 01003KT 00/M00 A3044 RMK A01 T00031002  RH  097%=      5-min Rain = 0
KSM2 080109Z 01004KT 00/M00 A3044 RMK A01 T00031002  RH  097%=      5-min Rain = 0
KSM2 080110Z 01003KT 00/M00 A3044 RMK A01 T00031002  RH  097%=      5-min Rain = 0
KSM2 080111Z 02003KT 00/M00 A3044 RMK A01 T00031002  RH  097%=      5-min Rain = 0
KSM2 080112Z 01003KT 00/M00 A3044 RMK A01 T00031002  RH  097%=      5-min Rain = 0
KSM2 080113Z 01003KT 00/M00 A3044 RMK A01 T00031002  RH  097%=      5-min Rain = 0
KSM2 080114Z 01003KT 00/M00 A3045 RMK A01 T00031002  RH  097%=      5-min Rain = 0
KSM2 080115Z 36003KT 00/M00 A3045 RMK A01 T00031002  RH  097%=      5-min Rain = 0
KSM2 080116Z 36004KT 00/M00 A3045 RMK A01 T00031001  RH  097%=      5-min Rain = 0
KSM2 080117Z 36004KT 00/M00 A3045 RMK A01 T00041001  RH  097%=      5-min Rain = 0
KSM2 080118Z 36004KT 00/M00 A3045 RMK A01 T00031002  RH  096%=      5-min Rain = 0
KSM2 080119Z 36004KT 00/M00 A3045 RMK A01 T00031002  RH  096%=      5-min Rain = 0
KSM2 080120Z 00004KT 00/M00 A3045 RMK A01 T00041001  RH  096%=      5-min Rain = 0
KSM2 080121Z 00003KT 00/M00 A3045 RMK A01 T00031002  RH  096%=      5-min Rain = 0
KSM2 080122Z 00004KT 00/M00 A3045 RMK A01 T00031002  RH  096%=      5-min Rain = 0
KSM2 080123Z 00004KT 00/M00 A3045 RMK A01 T00031002  RH  096%=      5-min Rain = 0
KSM2 080124Z 01004KT 00/M00 A3045 RMK A01 T00031002  RH  096%=      5-min Rain = 0
KSM2 080125Z 36003KT 00/M00 A3045 RMK A01 T00031002  RH  096%=      5-min Rain = 0
KSM2 080126Z 01003KT 00/M00 A3045 RMK A01 T00031002  RH  096%=      5-min Rain = 0
KSM2 080127Z 01003KT 00/M00 A3045 RMK A01 T00031002  RH  096%=      5-min Rain = 0
KSM2 080128Z 01003KT 00/M00 A3045 RMK A01 T00031002  RH  096%=      5-min Rain = 0
KSM2 080129Z 00003KT 00/M00 A3045 RMK A01 T00031002  RH  096%=      5-min Rain = 0
KSM2 080130Z 00004KT 00/M00 A3045 RMK A01 T00031002  RH  096%=      5-min Rain = 0
KSM2 080131Z 01004KT 00/M00 A3045 RMK A01 T00031002  RH  096%=      5-min Rain = 0
KSM2 080132Z 01004KT 00/M00 A3045 RMK A01 T00031002  RH  096%=      5-min Rain = 0
KSM2 080133Z 01003KT 00/M00 A3045 RMK A01 T00031002  RH  096%=      5-min Rain = 0
KSM2 080134Z 01003KT 00/M00 A3045 RMK A01 T00031002  RH  096%=      5-min Rain = 0
KSM2 080135Z 00003KT 00/M00 A3045 RMK A01 T00041001  RH  097%=      5-min Rain = 0
KSM2 080136Z 01004KT 00/M00 A3045 RMK A01 T00041001  RH  097%=      5-min Rain = 0
KSM2 080137Z 01003KT 00/M00 A3045 RMK A01 T00041001  RH  097%=      5-min Rain = 0
KSM2 080138Z 01003KT 00/M00 A3045 RMK A01 T00041002  RH  096%=      5-min Rain = 0
KSM2 080139Z 02003KT 00/M00 A3045 RMK A01 T00041001  RH  096%=      5-min Rain = 0
KSM2 080140Z 01002KT 00/M00 A3045 RMK A01 T00041001  RH  097%=      5-min Rain = 0
KSM2 080141Z 01003KT 00/00 A3045 RMK A01 T000400-0  RH  097%=      5-min Rain = 0
KSM2 080142Z 01003KT 00/M00 A3045 RMK A01 T00041001  RH  097%=      5-min Rain = 0
KSM2 080143Z 01003KT 00/M00 A3045 RMK A01 T00041001  RH  096%=      5-min Rain = 0
KSM2 080144Z 02003KT 00/M00 A3045 RMK A01 T00041001  RH  096%=      5-min Rain = 0
KSM2 080145Z 01002KT 00/M00 A3045 RMK A01 T00041001  RH  096%=      5-min Rain = 0
KSM2 080146Z 01002KT 00/M00 A3045 RMK A01 T00041001  RH  096%=      5-min Rain = 0
KSM2 080147Z 02003KT 01/00 A3045 RMK A01 T000500-0  RH  097%=      5-min Rain = 0
KSM2 080148Z 02004KT 01/M00 A3045 RMK A01 T00051001  RH  096%=      5-min Rain = 0
KSM2 080149Z 01007KT 00/M00 A3045 RMK A01 T00041001  RH  096%=      5-min Rain = 0
KSM2 080150Z 01008KT 01/00 A3045 RMK A01 T000500-0  RH  097%=      5-min Rain = 0
KSM2 080151Z 01007KT 01/00 A3045 RMK A01 T000500-0  RH  096%=      5-min Rain = 0
KSM2 080152Z 00007KT 00/M00 A3045 RMK A01 T00041001  RH  096%=      5-min Rain = 0
KSM2 080153Z 01006KT 00/M00 A3045 RMK A01 T00041001  RH  096%=      5-min Rain = 0
KSM2 080154Z 01006KT 00/M00 A3045 RMK A01 T00041001  RH  096%=      5-min Rain = 0
KSM2 080155Z 01007KT 00/M00 A3045 RMK A01 T00041001  RH  096%=      5-min Rain = 0
KSM2 080156Z 01007KT 00/M00 A3045 RMK A01 T00041001  RH  096%=      5-min Rain = 0
KSM2 080157Z 01006KT 00/M00 A3045 RMK A01 T00041001  RH  096%=      5-min Rain = 0
KSM2 080158Z 00007KT 00/M00 A3045 RMK A01 T00041001  RH  096%=      5-min Rain = 0
KSM2 080159Z 00007KT 00/M00 A3045 RMK A01 T00041001  RH  096%=      5-min Rain = 0
KSM2 080200Z 00007KT 00/M00 A3045 RMK A01 T00041001  RH  097%=      5-min Rain = 0
KSM2 080201Z 00008KT 00/M00 A3045 RMK A01 T00041001  RH  097%=      5-min Rain = 0
KSM2 080202Z 00008KT 00/M00 A3045 RMK A01 T00041001  RH  097%=      5-min Rain = 0
KSM2 080203Z 36008KT 00/M00 A3045 RMK A01 T00041001  RH  097%=      5-min Rain = 0
KSM2 080204Z 36009KT 01/00 A3045 RMK A01 T000500-0  RH  097%=      5-min Rain = 0
KSM2 080205Z 00009KT 00/00 A3045 RMK A01 T000400-0  RH  097%=      5-min Rain = 0
KSM2 080206Z 00009KT 00/00 A3045 RMK A01 T000400-0  RH  097%=      5-min Rain = 0
KSM2 080207Z 01008KT 01/00 A3045 RMK A01 T000500-0  RH  097%=      5-min Rain = 0
KSM2 080208Z 01009KT 00/00 A3045 RMK A01 T000400-0  RH  097%=      5-min Rain = 0
KSM2 080209Z 01009KT 00/M00 A3045 RMK A01 T00041001  RH  097%=      5-min Rain = 0
KSM2 080210Z 02007KT 00/M00 A3045 RMK A01 T00041001  RH  097%=      5-min Rain = 0
KSM2 080211Z 01008KT 00/M00 A3045 RMK A01 T00041001  RH  097%=      5-min Rain = 0
KSM2 080212Z 01008KT 00/M00 A3045 RMK A01 T00041001  RH  097%=      5-min Rain = 0
KSM2 080213Z 01010KT 00/M00 A3045 RMK A01 T00041001  RH  097%=      5-min Rain = 0
KSM2 080214Z 01009KT 00/M00 A3045 RMK A01 T00041001  RH  097%=      5-min Rain = 0
KSM2 080215Z 01008KT 00/M00 A3045 RMK A01 T00041001  RH  097%=      5-min Rain = 0
KSM2 080216Z 01008KT 00/M00 A3045 RMK A01 T00041001  RH  097%=      5-min Rain = 0
KSM2 080217Z 01006KT 00/M00 A3045 RMK A01 T00041001  RH  097%=      5-min Rain = 0
KSM2 080218Z 01007KT 00/M00 A3045 RMK A01 T00041001  RH  097%=      5-min Rain = 0
KSM2 080219Z 36008KT 00/M00 A3045 RMK A01 T00041001  RH  097%=      5-min Rain = 0
KSM2 080220Z 35009KT 00/M00 A3045 RMK A01 T00041001  RH  097%=      5-min Rain = 0
KSM2 080221Z 00008KT 01/00 A3045 RMK A01 T000500-0  RH  097%=      5-min Rain = 0
KSM2 080222Z 00008KT 01/00 A3045 RMK A01 T00050000  RH  097%=      5-min Rain = 0
KSM2 080223Z 00008KT 01/00 A3045 RMK A01 T000500-0  RH  097%=      5-min Rain = 0
KSM2 080224Z 01008KT 01/00 A3045 RMK A01 T00050000  RH  097%=      5-min Rain = 0
KSM2 080225Z 01008KT 01/00 A3045 RMK A01 T00050000  RH  097%=      5-min Rain = 0
KSM2 080226Z 01009KT 00/00 A3045 RMK A01 T00040000  RH  097%=      5-min Rain = 0
KSM2 080227Z 02008KT 01/00 A3045 RMK A01 T00050000  RH  097%=      5-min Rain = 0
KSM2 080228Z 02009KT 00/00 A3045 RMK A01 T000400-0  RH  097%=      5-min Rain = 0
KSM2 080229Z 02007KT 01/00 A3045 RMK A01 T00050000  RH  097%=      5-min Rain = 0
KSM2 080230Z 02007KT 01/00 A3045 RMK A01 T00050000  RH  097%=      5-min Rain = 0
KSM2 080231Z 02008KT 01/00 A3045 RMK A01 T00050001  RH  097%=      5-min Rain = 0
KSM2 080232Z 02008KT 01/00 A3045 RMK A01 T00050001  RH  097%=      5-min Rain = 0
KSM2 080233Z 02007KT 01/00 A3045 RMK A01 T00050001  RH  097%=      5-min Rain = 0
KSM2 080234Z 02007KT 01/00 A3045 RMK A01 T00050000  RH  097%=      5-min Rain = 0
KSM2 080235Z 02008KT 01/00 A3045 RMK A01 T00050001  RH  097%=      5-min Rain = 0
KSM2 080236Z 02008KT 01/00 A3045 RMK A01 T00050001  RH  097%=      5-min Rain = 0
KSM2 080237Z 02007KT 01/00 A3045 RMK A01 T00050001  RH  097%=      5-min Rain = 0
KSM2 080238Z 02007KT 01/00 A3045 RMK A01 T00050001  RH  097%=      5-min Rain = 0
KSM2 080239Z 02007KT 01/00 A3045 RMK A01 T00050001  RH  097%=      5-min Rain = 0
KSM2 080240Z 01007KT 01/00 A3045 RMK A01 T00050001  RH  097%=      5-min Rain = 0
KSM2 080241Z 01007KT 01/00 A3045 RMK A01 T00050001  RH  097%=      5-min Rain = 0
KSM2 080242Z 02006KT 01/00 A3046 RMK A01 T00050001  RH  097%=      5-min Rain = 0
KSM2 080243Z 02007KT 01/00 A3046 RMK A01 T00050001  RH  097%=      5-min Rain = 0
KSM2 080244Z 01005KT 01/00 A3046 RMK A01 T00050001  RH  097%=      5-min Rain = 0
KSM2 080245Z 02007KT 01/00 A3046 RMK A01 T00050001  RH  097%=      5-min Rain = 0
KSM2 080246Z 02006KT 01/00 A3046 RMK A01 T00050001  RH  097%=      5-min Rain = 0
KSM2 080247Z 02008KT 01/00 A3046 RMK A01 T00050001  RH  097%=      5-min Rain = 0
KSM2 080248Z 01007KT 01/00 A3046 RMK A01 T00050001  RH  097%=      5-min Rain = 0
KSM2 080249Z 01006KT 01/00 A3046 RMK A01 T00050001  RH  097%=      5-min Rain = 0
KSM2 080250Z 02007KT 01/00 A3046 RMK A01 T00050001  RH  097%=      5-min Rain = 0
KSM2 080251Z 01006KT 01/00 A3046 RMK A01 T00050001  RH  097%=      5-min Rain = 0
KSM2 080252Z 01006KT 01/00 A3046 RMK A01 T00050001  RH  097%=      5-min Rain = 0
KSM2 080253Z 01006KT 01/00 A3046 RMK A01 T00050001  RH  097%=      5-min Rain = 0
KSM2 080254Z 01006KT 01/00 A3046 RMK A01 T00050001  RH  097%=      5-min Rain = 0
KSM2 080255Z 01008KT 01/00 A3046 RMK A01 T00050001  RH  097%=      5-min Rain = 0
KSM2 080256Z 01007KT 01/00 A3046 RMK A01 T00050001  RH  097%=      5-min Rain = 0
KSM2 080257Z 01006KT 01/00 A3046 RMK A01 T00050001  RH  097%=      5-min Rain = 0
KSM2 080258Z 01006KT 01/00 A3046 RMK A01 T00050001  RH  097%=      5-min Rain = 0
KSM2 080259Z 00005KT 01/00 A3046 RMK A01 T00050001  RH  097%=      5-min Rain = 0
KSM2 080300Z 36006KT 01/00 A3046 RMK A01 T00050001  RH  097%=      5-min Rain = 0
KSM2 080301Z 01006KT 01/00 A3046 RMK A01 T00050001  RH  097%=      5-min Rain = 0
KSM2 080302Z 35006KT 01/00 A3046 RMK A01 T00050001  RH  097%=      5-min Rain = 0
KSM2 080303Z 01005KT 01/00 A3046 RMK A01 T00060002  RH  097%=      5-min Rain = 0
KSM2 080304Z 01006KT 01/00 A3046 RMK A01 T00060002  RH  097%=      5-min Rain = 0
KSM2 080305Z 00007KT 01/00 A3046 RMK A01 T00060002  RH  097%=      5-min Rain = 0
KSM2 080306Z 00008KT 01/00 A3046 RMK A01 T00050002  RH  097%=      5-min Rain = 0
KSM2 080307Z 00007KT 01/00 A3046 RMK A01 T00050001  RH  097%=      5-min Rain = 0
KSM2 080308Z 00007KT 01/00 A3046 RMK A01 T00050001  RH  097%=      5-min Rain = 0
KSM2 080309Z 00008KT 01/00 A3046 RMK A01 T00050001  RH  097%=      5-min Rain = 0
KSM2 080310Z 00006KT 01/00 A3046 RMK A01 T00050001  RH  097%=      5-min Rain = 0
KSM2 080311Z 00006KT 01/00 A3047 RMK A01 T00050001  RH  097%=      5-min Rain = 0
KSM2 080312Z 00006KT 01/00 A3047 RMK A01 T00050001  RH  097%=      5-min Rain = 0
KSM2 080313Z 36006KT 01/00 A3047 RMK A01 T00050001  RH  097%=      5-min Rain = 0
KSM2 080314Z 00007KT 01/00 A3047 RMK A01 T00050002  RH  097%=      5-min Rain = 0
KSM2 080315Z 01006KT 01/00 A3046 RMK A01 T00050001  RH  097%=      5-min Rain = 0
KSM2 080316Z 01006KT 01/00 A3046 RMK A01 T00050001  RH  097%=      5-min Rain = 0
KSM2 080317Z 01006KT 01/00 A3046 RMK A01 T00050001  RH  097%=      5-min Rain = 0
KSM2 080318Z 00006KT 01/00 A3046 RMK A01 T00050001  RH  097%=      5-min Rain = 0
KSM2 080319Z 01006KT 01/00 A3047 RMK A01 T00050001  RH  097%=      5-min Rain = 0
KSM2 080320Z 01006KT 01/00 A3047 RMK A01 T00050001  RH  097%=      5-min Rain = 0
KSM2 080321Z 02006KT 01/00 A3047 RMK A01 T00050002  RH  098%=      5-min Rain = 0
KSM2 080322Z 01005KT 01/00 A3046 RMK A01 T00060002  RH  098%=      5-min Rain = 0
KSM2 080323Z 00006KT 01/00 A3046 RMK A01 T00050002  RH  098%=      5-min Rain = 0
KSM2 080324Z 01007KT 01/00 A3046 RMK A01 T00050002  RH  098%=      5-min Rain = 0
KSM2 080325Z 00006KT 01/00 A3046 RMK A01 T00050002  RH  098%=      5-min Rain = 0
KSM2 080326Z 00007KT 01/00 A3046 RMK A01 T00050002  RH  098%=      5-min Rain = 0
KSM2 080327Z 01007KT 01/00 A3046 RMK A01 T00050002  RH  098%=      5-min Rain = 0
KSM2 080328Z 01007KT 01/00 A3046 RMK A01 T00050002  RH  098%=      5-min Rain = 0
KSM2 080329Z 01007KT 01/00 A3046 RMK A01 T00050001  RH  098%=      5-min Rain = 0
KSM2 080330Z 01008KT 01/00 A3046 RMK A01 T00050001  RH  098%=      5-min Rain = 0
KSM2 080331Z 01008KT 01/00 A3046 RMK A01 T00050001  RH  097%=      5-min Rain = 0
KSM2 080332Z 01009KT 00/00 A3046 RMK A01 T00040000  RH  097%=      5-min Rain = 0
KSM2 080333Z 01008KT 00/00 A3046 RMK A01 T000400-0  RH  097%=      5-min Rain = 0
KSM2 080334Z 01007KT 00/00 A3046 RMK A01 T000300-0  RH  097%=      5-min Rain = 0
KSM2 080335Z 01007KT 00/00 A3046 RMK A01 T000300-0  RH  097%=      5-min Rain = 0
KSM2 080336Z 01009KT 00/00 A3046 RMK A01 T000300-0  RH  097%=      5-min Rain = 0
KSM2 080337Z 02008KT 00/M00 A3046 RMK A01 T00031001  RH  097%=      5-min Rain = 0
KSM2 080338Z 02007KT 00/00 A3047 RMK A01 T000300-0  RH  098%=      5-min Rain = 0
KSM2 080339Z 02008KT 00/00 A3047 RMK A01 T00040001  RH  098%=      5-min Rain = 0
KSM2 080340Z 02007KT 00/00 A3047 RMK A01 T00040001  RH  098%=      5-min Rain = 0
KSM2 080341Z 01006KT 00/00 A3047 RMK A01 T00040000  RH  098%=      5-min Rain = 0
KSM2 080342Z 01006KT 00/00 A3047 RMK A01 T00040001  RH  098%=      5-min Rain = 0
KSM2 080343Z 01006KT 00/00 A3047 RMK A01 T00040001  RH  098%=      5-min Rain = 0
KSM2 080344Z 01006KT 00/00 A3047 RMK A01 T00040001  RH  098%=      5-min Rain = 0
KSM2 080345Z 02005KT 00/00 A3047 RMK A01 T00040000  RH  098%=      5-min Rain = 0
KSM2 080346Z 01006KT 00/00 A3047 RMK A01 T00040000  RH  098%=      5-min Rain = 0
KSM2 080347Z 01007KT 00/00 A3047 RMK A01 T00040000  RH  098%=      5-min Rain = 0
KSM2 080348Z 00008KT 00/00 A3047 RMK A01 T000300-0  RH  098%=      5-min Rain = 0
KSM2 080349Z 01007KT 00/00 A3047 RMK A01 T00040000  RH  098%=      5-min Rain = 0
KSM2 080350Z 01008KT 00/00 A3047 RMK A01 T00040000  RH  098%=      5-min Rain = 0
KSM2 080351Z 01008KT 00/00 A3047 RMK A01 T000300-0  RH  098%=      5-min Rain = 0
KSM2 080352Z 00006KT 00/M00 A3047 RMK A01 T00031001  RH  097%=      5-min Rain = 0
KSM2 080353Z 01007KT 00/M00 A3047 RMK A01 T00031001  RH  097%=      5-min Rain = 0
KSM2 080354Z 01007KT 00/00 A3047 RMK A01 T000300-0  RH  097%=      5-min Rain = 0
KSM2 080355Z 01007KT 00/00 A3047 RMK A01 T000300-0  RH  097%=      5-min Rain = 0
KSM2 080356Z 01007KT 00/00 A3047 RMK A01 T000300-0  RH  097%=      5-min Rain = 0
KSM2 080357Z 01007KT 00/M00 A3047 RMK A01 T00031001  RH  097%=      5-min Rain = 0
KSM2 080358Z 01007KT 00/M00 A3047 RMK A01 T00031001  RH  097%=      5-min Rain = 0
KSM2 080359Z 01007KT 00/M00 A3047 RMK A01 T00031001  RH  097%=      5-min Rain = 0
KSM2 080400Z 01006KT 00/M00 A3047 RMK A01 T00031001  RH  097%=      5-min Rain = 0
KSM2 080401Z 01007KT 00/M00 A3047 RMK A01 T00031001  RH  097%=      5-min Rain = 0
KSM2 080402Z 01007KT 00/M00 A3047 RMK A01 T00031001  RH  097%=      5-min Rain = 0
KSM2 080403Z 01007KT 00/M00 A3047 RMK A01 T00031001  RH  097%=      5-min Rain = 0
KSM2 080404Z 01007KT 00/M00 A3047 RMK A01 T00031001  RH  097%=      5-min Rain = 0
KSM2 080405Z 02008KT 00/M00 A3047 RMK A01 T00031001  RH  097%=      5-min Rain = 0
KSM2 080406Z 01006KT 00/M00 A3047 RMK A01 T00031001  RH  097%=      5-min Rain = 0
KSM2 080407Z 01006KT 00/M00 A3047 RMK A01 T00031001  RH  097%=      5-min Rain = 0
KSM2 080408Z 02007KT 00/M00 A3047 RMK A01 T00031001  RH  097%=      5-min Rain = 0
KSM2 080409Z 01006KT 00/M00 A3047 RMK A01 T00041001  RH  097%=      5-min Rain = 0
KSM2 080410Z 01007KT 00/M00 A3047 RMK A01 T00041001  RH  097%=      5-min Rain = 0
KSM2 080411Z 00006KT 00/M00 A3047 RMK A01 T00041001  RH  097%=      5-min Rain = 0
KSM2 080412Z 01005KT 00/M00 A3047 RMK A01 T00041001  RH  097%=      5-min Rain = 0
KSM2 080413Z 01004KT 00/M00 A3047 RMK A01 T00041001  RH  097%=      5-min Rain = 0
KSM2 080414Z 01004KT 00/M00 A3047 RMK A01 T00031001  RH  097%=      5-min Rain = 0
KSM2 080415Z 01004KT 00/M00 A3047 RMK A01 T00041001  RH  097%=      5-min Rain = 0
KSM2 080416Z 01005KT 00/M00 A3047 RMK A01 T00031001  RH  097%=      5-min Rain = 0
KSM2 080417Z 01004KT 00/M00 A3047 RMK A01 T00041001  RH  096%=      5-min Rain = 0
KSM2 080418Z 01005KT 00/M00 A3047 RMK A01 T00041001  RH  096%=      5-min Rain = 0
KSM2 080419Z 01006KT 00/M00 A3047 RMK A01 T00041001  RH  096%=      5-min Rain = 0
KSM2 080420Z 01006KT 00/M00 A3047 RMK A01 T00041001  RH  096%=      5-min Rain = 0
KSM2 080421Z 01006KT 00/M00 A3047 RMK A01 T00041001  RH  096%=      5-min Rain = 0
KSM2 080422Z 02005KT 00/M00 A3047 RMK A01 T00041001  RH  096%=      5-min Rain = 0
KSM2 080423Z 01006KT 00/M00 A3047 RMK A01 T00041001  RH  096%=      5-min Rain = 0
KSM2 080424Z 01006KT 01/M00 A3047 RMK A01 T00051001  RH  096%=      5-min Rain = 0
KSM2 080425Z 02006KT 01/M00 A3047 RMK A01 T00051001  RH  096%=      5-min Rain = 0
KSM2 080426Z 02007KT 01/M00 A3047 RMK A01 T00051001  RH  096%=      5-min Rain = 0
KSM2 080427Z 02007KT 01/M00 A3047 RMK A01 T00051001  RH  096%=      5-min Rain = 0
KSM2 080428Z 02008KT 00/M00 A3047 RMK A01 T00041001  RH  096%=      5-min Rain = 0
KSM2 080429Z 01007KT 00/M00 A3047 RMK A01 T00041001  RH  096%=      5-min Rain = 0
KSM2 080430Z 02007KT 01/M00 A3047 RMK A01 T00051001  RH  096%=      5-min Rain = 0
KSM2 080431Z 01006KT 01/M00 A3047 RMK A01 T00051001  RH  096%=      5-min Rain = 0
KSM2 080432Z 01005KT 01/M00 A3047 RMK A01 T00051001  RH  096%=      5-min Rain = 0
KSM2 080433Z 01004KT 01/00 A3047 RMK A01 T000500-0  RH  096%=      5-min Rain = 0
KSM2 080434Z 01005KT 01/00 A3047 RMK A01 T000500-0  RH  096%=      5-min Rain = 0
KSM2 080435Z 01006KT 01/00 A3047 RMK A01 T000500-0  RH  096%=      5-min Rain = 0
KSM2 080436Z 01006KT 01/00 A3047 RMK A01 T000500-0  RH  096%=      5-min Rain = 0
KSM2 080437Z 01005KT 01/00 A3047 RMK A01 T000500-0  RH  096%=      5-min Rain = 0
KSM2 080438Z 01005KT 01/M00 A3047 RMK A01 T00051001  RH  096%=      5-min Rain = 0
KSM2 080439Z 00007KT 01/M00 A3047 RMK A01 T00051001  RH  096%=      5-min Rain = 0
KSM2 080440Z 00006KT 00/M00 A3047 RMK A01 T00041001  RH  096%=      5-min Rain = 0
KSM2 080441Z 00006KT 00/M00 A3047 RMK A01 T00041001  RH  096%=      5-min Rain = 0
KSM2 080442Z 01007KT 00/M00 A3047 RMK A01 T00041001  RH  096%=      5-min Rain = 0
KSM2 080443Z 01006KT 00/M00 A3047 RMK A01 T00041001  RH  096%=      5-min Rain = 0
KSM2 080444Z 01006KT 00/M00 A3047 RMK A01 T00041001  RH  096%=      5-min Rain = 0
KSM2 080445Z 00006KT 00/M00 A3047 RMK A01 T00041001  RH  096%=      5-min Rain = 0
KSM2 080446Z 00005KT 01/M00 A3047 RMK A01 T00051001  RH  096%=      5-min Rain = 0
KSM2 080447Z 00006KT 01/00 A3047 RMK A01 T000500-0  RH  096%=      5-min Rain = 0
KSM2 080448Z 00007KT 01/M00 A3047 RMK A01 T00051001  RH  096%=      5-min Rain = 0
KSM2 080449Z 00008KT 01/00 A3047 RMK A01 T000500-0  RH  096%=      5-min Rain = 0
KSM2 080450Z 00006KT 01/00 A3047 RMK A01 T000500-0  RH  096%=      5-min Rain = 0
KSM2 080451Z 00005KT 01/M00 A3047 RMK A01 T00051001  RH  096%=      5-min Rain = 0
KSM2 080452Z 01005KT 01/00 A3047 RMK A01 T000500-0  RH  096%=      5-min Rain = 0
KSM2 080453Z 02006KT 01/00 A3047 RMK A01 T00050000  RH  096%=      5-min Rain = 0
KSM2 080454Z 01005KT 01/00 A3047 RMK A01 T000500-0  RH  096%=      5-min Rain = 0
KSM2 080455Z 01005KT 01/M00 A3047 RMK A01 T00051001  RH  096%=      5-min Rain = 0
KSM2 080456Z 02006KT 01/M00 A3047 RMK A01 T00051001  RH  096%=      5-min Rain = 0
KSM2 080457Z 01006KT 01/M00 A3047 RMK A01 T00051001  RH  096%=      5-min Rain = 0
KSM2 080458Z 02005KT 01/M00 A3047 RMK A01 T00051001  RH  096%=      5-min Rain = 0
KSM2 080459Z 01005KT 01/M00 A3047 RMK A01 T00051001  RH  096%=      5-min Rain = 0
KSM2 080500Z 01007KT 01/M00 A3047 RMK A01 T00051001  RH  096%=      5-min Rain = 0
KSM2 080501Z 02006KT 01/M00 A3047 RMK A01 T00051001  RH  096%=      5-min Rain = 0
KSM2 080502Z 02007KT 00/M00 A3046 RMK A01 T00041001  RH  096%=      5-min Rain = 0
KSM2 080503Z 02006KT 01/M00 A3046 RMK A01 T00051001  RH  096%=      5-min Rain = 0
KSM2 080504Z 02006KT 00/M00 A3046 RMK A01 T00041001  RH  096%=      5-min Rain = 0
KSM2 080505Z 02006KT 00/M00 A3046 RMK A01 T00041001  RH  096%=      5-min Rain = 0
KSM2 080506Z 01005KT 01/M00 A3046 RMK A01 T00051001  RH  096%=      5-min Rain = 0
KSM2 080507Z 01007KT 01/M00 A3046 RMK A01 T00051001  RH  096%=      5-min Rain = 0
KSM2 080508Z 02006KT 01/M00 A3046 RMK A01 T00051001  RH  096%=      5-min Rain = 0
KSM2 080509Z 03005KT 01/M00 A3046 RMK A01 T00051001  RH  096%=      5-min Rain = 0
KSM2 080510Z 02006KT 01/M00 A3046 RMK A01 T00051001  RH  096%=      5-min Rain = 0
KSM2 080511Z 03005KT 01/M00 A3046 RMK A01 T00051001  RH  096%=      5-min Rain = 0
KSM2 080512Z 01005KT 01/M00 A3046 RMK A01 T00051001  RH  096%=      5-min Rain = 0
KSM2 080513Z 02005KT 01/00 A3046 RMK A01 T000500-0  RH  096%=      5-min Rain = 0
KSM2 080514Z 01006KT 01/00 A3047 RMK A01 T00050000  RH  096%=      5-min Rain = 0
KSM2 080515Z 02006KT 01/00 A3047 RMK A01 T00050000  RH  096%=      5-min Rain = 0
KSM2 080516Z 02006KT 01/00 A3047 RMK A01 T00050000  RH  096%=      5-min Rain = 0
KSM2 080517Z 01005KT 01/00 A3047 RMK A01 T00050000  RH  096%=      5-min Rain = 0
KSM2 080518Z 01004KT 01/00 A3046 RMK A01 T00050000  RH  096%=      5-min Rain = 0
KSM2 080519Z 01004KT 01/00 A3046 RMK A01 T00050000  RH  096%=      5-min Rain = 0
KSM2 080520Z 02003KT 01/00 A3046 RMK A01 T00060001  RH  097%=      5-min Rain = 0
KSM2 080521Z 02005KT 01/00 A3046 RMK A01 T00060002  RH  097%=      5-min Rain = 0
KSM2 080522Z 02006KT 01/00 A3046 RMK A01 T00070002  RH  097%=      5-min Rain = 0
KSM2 080523Z 03007KT 01/00 A3046 RMK A01 T00070002  RH  097%=      5-min Rain = 0
KSM2 080524Z 02007KT 01/00 A3046 RMK A01 T00060001  RH  097%=      5-min Rain = 0
KSM2 080525Z 02006KT 01/00 A3046 RMK A01 T00060001  RH  097%=      5-min Rain = 0
KSM2 080526Z 01008KT 01/00 A3046 RMK A01 T00060001  RH  096%=      5-min Rain = 0
KSM2 080527Z 01007KT 01/00 A3046 RMK A01 T000500-0  RH  096%=      5-min Rain = 0
KSM2 080528Z 01006KT 01/M00 A3046 RMK A01 T00051001  RH  096%=      5-min Rain = 0
KSM2 080529Z 02006KT 01/M00 A3046 RMK A01 T00051001  RH  096%=      5-min Rain = 0
KSM2 080530Z 02007KT 01/00 A3046 RMK A01 T00050000  RH  097%=      5-min Rain = 0
KSM2 080531Z 02007KT 01/00 A3046 RMK A01 T00050000  RH  097%=      5-min Rain = 0
KSM2 080532Z 02007KT 01/00 A3046 RMK A01 T000500-0  RH  097%=      5-min Rain = 0
KSM2 080533Z 02008KT 01/00 A3046 RMK A01 T000500-0  RH  097%=      5-min Rain = 0
KSM2 080534Z 02007KT 01/00 A3046 RMK A01 T000500-0  RH  097%=      5-min Rain = 0
KSM2 080535Z 01005KT 01/00 A3046 RMK A01 T000500-0  RH  096%=      5-min Rain = 0
KSM2 080536Z 02006KT 01/00 A3046 RMK A01 T000500-0  RH  097%=      5-min Rain = 0
KSM2 080537Z 02005KT 01/00 A3046 RMK A01 T000500-0  RH  097%=      5-min Rain = 0
KSM2 080538Z 01006KT 01/00 A3046 RMK A01 T000500-0  RH  096%=      5-min Rain = 0
KSM2 080539Z 01006KT 00/M00 A3046 RMK A01 T00041001  RH  096%=      5-min Rain = 0
KSM2 080540Z 01005KT 00/M00 A3046 RMK A01 T00041001  RH  096%=      5-min Rain = 0
KSM2 080541Z 01005KT 00/M00 A3046 RMK A01 T00041001  RH  096%=      5-min Rain = 0
KSM2 080542Z 02007KT 00/M00 A3046 RMK A01 T00041001  RH  096%=      5-min Rain = 0
KSM2 080543Z 02006KT 00/M00 A3046 RMK A01 T00041002  RH  096%=      5-min Rain = 0
KSM2 080544Z 02005KT 00/M00 A3046 RMK A01 T00041001  RH  096%=      5-min Rain = 0
KSM2 080545Z 02006KT 01/M00 A3046 RMK A01 T00051001  RH  096%=      5-min Rain = 0
KSM2 080546Z 02006KT 01/00 A3046 RMK A01 T000500-0  RH  096%=      5-min Rain = 0
KSM2 080547Z 01004KT 01/00 A3046 RMK A01 T000500-0  RH  096%=      5-min Rain = 0
KSM2 080548Z 01005KT 01/00 A3046 RMK A01 T000500-0  RH  096%=      5-min Rain = 0
KSM2 080549Z 01005KT 01/00 A3046 RMK A01 T00050000  RH  097%=      5-min Rain = 0
KSM2 080550Z 02006KT 01/00 A3046 RMK A01 T000500-0  RH  096%=      5-min Rain = 0
KSM2 080551Z 02006KT 01/00 A3046 RMK A01 T00050000  RH  096%=      5-min Rain = 0
KSM2 080552Z 02005KT 01/00 A3046 RMK A01 T00050000  RH  096%=      5-min Rain = 0
KSM2 080553Z 01006KT 01/00 A3046 RMK A01 T00050000  RH  096%=      5-min Rain = 0
KSM2 080554Z 02005KT 01/00 A3046 RMK A01 T000500-0  RH  096%=      5-min Rain = 0
KSM2 080555Z 02006KT 01/00 A3046 RMK A01 T000500-0  RH  096%=      5-min Rain = 0
KSM2 080556Z 01006KT 01/00 A3046 RMK A01 T000500-0  RH  096%=      5-min Rain = 0
KSM2 080557Z 01007KT 01/00 A3046 RMK A01 T000500-0  RH  096%=      5-min Rain = 0
KSM2 080558Z 00008KT 01/M00 A3046 RMK A01 T00051001  RH  096%=      5-min Rain = 0
KSM2 080559Z 00008KT 00/M00 A3046 RMK A01 T00041001  RH  096%=      5-min Rain = 0

Page generated in 0.0714 seconds.